EW3712 Weather Reports


Display with metric or nautical units.
time (UTC)temp
F
wind
direction
speed
MPH
gust
MPH
rain 1hr
in
rain 24hr
in
rain mn
in
humidity
%
barometer
mb
20260508162804 61 84 6.0 12.0 0.00 0.00 0.00 40 1016.8
20260508162704 61 85 6.0 12.0 0.00 0.00 0.00 39 1016.8
20260508162603 61 85 6.0 12.0 0.00 0.00 0.00 39 1016.8
20260508162503 61 86 6.0 12.0 0.00 0.00 0.00 38 1016.8
20260508162403 61 89 6.0 12.0 0.00 0.00 0.00 41 1016.9
20260508162306 61 87 5.0 12.0 0.00 0.00 0.00 40 1016.9
20260508162204 61 87 5.0 12.0 0.00 0.00 0.00 40 1016.8
20260508162003 61 85 5.0 11.0 0.00 0.00 0.00 39 1016.8
20260508161903 61 83 5.0 11.0 0.00 0.00 0.00 41 1016.9
20260508161804 61 83 5.0 10.0 0.00 0.00 0.00 39 1016.8
20260508161703 60 85 5.0 10.0 0.00 0.00 0.00 39 1016.8
20260508161603 60 84 5.0 10.0 0.00 0.00 0.00 39 1016.7
20260508161403 60 82 5.0 10.0 0.00 0.00 0.00 38 1016.7
20260508161303 60 86 5.0 9.0 0.00 0.00 0.00 39 1016.8
20260508161204 60 87 5.0 9.0 0.00 0.00 0.00 39 1016.8
20260508161103 60 85 5.0 9.0 0.00 0.00 0.00 40 1016.7
20260508161003 60 85 5.0 9.0 0.00 0.00 0.00 39 1016.7
20260508160904 60 84 5.0 9.0 0.00 0.00 0.00 40 1016.7
20260508160803 60 82 5.0 9.0 0.00 0.00 0.00 40 1016.7
20260508160703 60 83 5.0 9.0 0.00 0.00 0.00 39 1016.7
20260508160604 60 85 5.0 9.0 0.00 0.00 0.00 42 1016.8
20260508160503 60 87 5.0 9.0 0.00 0.00 0.00 41 1016.8
20260508160403 60 87 5.0 8.0 0.00 0.00 0.00 43 1016.8
20260508160303 59 88 5.0 8.0 0.00 0.00 0.00 42 1016.8
20260508160203 59 89 5.0 8.0 0.00 0.00 0.00 43 1016.8
20260508160103 59 90 5.0 8.0 0.00 0.00 0.00 42 1016.8
20260508160003 59 90 4.0 8.0 0.00 0.00 0.00 42 1016.8
20260508155904 59 90 4.0 8.0 0.00 0.00 0.00 42 1016.8
20260508155803 59 91 4.0 8.0 0.00 0.00 0.00 42 1016.8
20260508155703 59 92 4.0 8.0 0.00 0.00 0.00 42 1016.8
20260508155603 59 92 5.0 8.0 0.00 0.00 0.00 43 1016.8
20260508155503 59 90 5.0 8.0 0.00 0.00 0.00 42 1016.8
20260508155403 59 89 5.0 8.0 0.00 0.00 0.00 42 1016.8
20260508155306 59 85 5.0 8.0 0.00 0.00 0.00 44 1016.9
20260508155203 59 82 5.0 8.0 0.00 0.00 0.00 44 1016.9
20260508155104 59 82 5.0 10.0 0.00 0.00 0.00 45 1016.8
20260508155003 59 82 6.0 10.0 0.00 0.00 0.00 45 1016.9
20260508154903 59 83 5.0 10.0 0.00 0.00 0.00 45 1016.9
20260508154803 59 82 5.0 10.0 0.00 0.00 0.00 45 1017.0
20260508154703 59 82 5.0 11.0 0.00 0.00 0.00 45 1017.0
20260508154603 59 82 5.0 11.0 0.00 0.00 0.00 46 1016.9
20260508154503 59 83 4.0 11.0 0.00 0.00 0.00 46 1016.9
20260508154403 59 83 4.0 11.0 0.00 0.00 0.00 45 1016.9
20260508154303 59 84 3.0 11.0 0.00 0.00 0.00 45 1016.9
20260508154203 59 84 3.0 11.0 0.00 0.00 0.00 44 1016.9
20260508154103 59 85 3.0 11.0 0.00 0.00 0.00 43 1016.9
20260508154003 59 83 2.0 11.0 0.00 0.00 0.00 43 1016.9
20260508153903 60 81 2.0 11.0 0.00 0.00 0.00 43 1016.9
20260508153803 60 81 2.0 11.0 0.00 0.00 0.00 43 1016.9
20260508153703 60 78 1.0 9.0 0.00 0.00 0.00 42 1016.8
20260508153603 60 74 1.0 7.0 0.00 0.00 0.00 42 1016.8
20260508153503 60 71 1.0 7.0 0.00 0.00 0.00 43 1017.0
20260508153403 60 65 1.0 7.0 0.00 0.00 0.00 44 1017.0
20260508153303 60 56 1.0 6.0 0.00 0.00 0.00 42 1017.0
20260508153203 60 50 1.0 6.0 0.00 0.00 0.00 41 1017.0
20260508153003 60 36 1.0 5.0 0.00 0.00 0.00 42 1017.0
20260508152803 59 41 1.0 5.0 0.00 0.00 0.00 41 1016.9
20260508152703 60 41 1.0 5.0 0.00 0.00 0.00 41 1016.9
20260508152603 60 40 1.0 5.0 0.00 0.00 0.00 41 1016.9
20260508152503 60 36 1.0 5.0 0.00 0.00 0.00 41 1017.0
20260508152403 60 23 1.0 2.0 0.00 0.00 0.00 43 1017.1
20260508152306 60 36 1.0 2.0 0.00 0.00 0.00 43 1017.1
20260508152203 60 42 1.0 2.0 0.00 0.00 0.00 43 1017.1
20260508152103 60 49 1.0 2.0 0.00 0.00 0.00 44 1017.2
20260508152003 59 64 1.0 4.0 0.00 0.00 0.00 43 1017.2
20260508151903 59 63 1.0 4.0 0.00 0.00 0.00 44 1017.2
20260508151803 59 53 1.0 4.0 0.00 0.00 0.00 45 1017.3
20260508151703 58 53 1.0 4.0 0.00 0.00 0.00 45 1016.9
20260508151403 57 37 0.0 4.0 0.00 0.00 0.00 45 1016.8
20260508151303 57 22 0.0 4.0 0.00 0.00 0.00 45 1016.8
20260508151203 57 18 0.0 4.0 0.00 0.00 0.00 45 1016.8
20260508151103 57 10 0.0 4.0 0.00 0.00 0.00 45 1016.8
20260508151003 57 337 0.0 4.0 0.00 0.00 0.00 45 1016.8
20260508150904 56 311 0.0 4.0 0.00 0.00 0.00 45 1016.8
20260508150803 56 0 0.0 2.0 0.00 0.00 0.00 45 1016.7
20260508150603 56 0 0.0 2.0 0.00 0.00 0.00 46 1016.8
20260508150503 56 0 0.0 2.0 0.00 0.00 0.00 45 1016.7
20260508150403 56 266 0.0 2.0 0.00 0.00 0.00 46 1016.8
20260508150304 56 0 0.0 0.0 0.00 0.00 0.00 47 1016.8
20260508150204 56 210 0.0 1.0 0.00 0.00 0.00 46 1016.8
20260508150003 56 236 1.0 4.0 0.00 0.00 0.00 45 1016.8
20260508145903 56 236 1.0 4.0 0.00 0.00 0.00 45 1016.8
20260508145803 56 236 1.0 4.0 0.00 0.00 0.00 46 1016.7
20260508145703 56 236 1.0 4.0 0.00 0.00 0.00 48 1016.8
20260508145604 55 236 1.0 4.0 0.00 0.00 0.00 48 1016.8
20260508145503 55 209 1.0 4.0 0.00 0.00 0.00 47 1016.7
20260508145403 54 174 1.0 4.0 0.00 0.00 0.00 48 1016.7
20260508145306 54 167 1.0 4.0 0.00 0.00 0.00 49 1016.8
20260508145203 54 155 1.0 4.0 0.00 0.00 0.00 48 1016.8
20260508145103 54 130 1.0 4.0 0.00 0.00 0.00 48 1016.8
20260508145004 54 107 1.0 2.0 0.00 0.00 0.00 49 1016.8
20260508144903 54 108 1.0 3.0 0.00 0.00 0.00 49 1016.9
20260508144803 54 109 1.0 3.0 0.00 0.00 0.00 51 1016.9
20260508144703 54 109 1.0 3.0 0.00 0.00 0.00 50 1016.9
20260508144603 54 108 1.0 3.0 0.00 0.00 0.00 50 1016.9
20260508144403 54 101 1.0 3.0 0.00 0.00 0.00 51 1016.9
20260508144303 54 97 1.0 3.0 0.00 0.00 0.00 51 1016.9
20260508144204 53 98 1.0 3.0 0.00 0.00 0.00 51 1016.8
20260508144103 53 97 1.0 4.0 0.00 0.00 0.00 51 1016.8
20260508144003 53 95 1.0 4.0 0.00 0.00 0.00 51 1016.8
20260508143903 53 90 1.0 4.0 0.00 0.00 0.00 52 1016.9
20260508143803 53 90 1.0 4.0 0.00 0.00 0.00 51 1016.9
20260508143703 53 90 1.0 4.0 0.00 0.00 0.00 51 1016.9
20260508143603 53 90 1.0 4.0 0.00 0.00 0.00 52 1016.9
20260508143503 53 90 1.0 4.0 0.00 0.00 0.00 51 1016.9
20260508143403 53 90 1.0 4.0 0.00 0.00 0.00 51 1016.9
20260508143303 53 90 0.0 4.0 0.00 0.00 0.00 51 1016.9
20260508143103 53 90 1.0 4.0 0.00 0.00 0.00 50 1016.9
20260508143003 53 89 1.0 4.0 0.00 0.00 0.00 50 1017.0
20260508142903 53 91 1.0 4.0 0.00 0.00 0.00 50 1016.9
20260508142803 53 92 1.0 2.0 0.00 0.00 0.00 51 1016.9
20260508142703 53 135 2.0 1.0 0.00 0.00 0.00 52 1016.9
20260508142603 53 150 2.0 2.0 0.00 0.00 0.00 52 1016.9
20260508142504 53 148 2.0 2.0 0.00 0.00 0.00 50 1016.9
20260508142403 53 146 3.0 4.0 0.00 0.00 0.00 50 1016.9
20260508142306 53 143 3.0 5.0 0.00 0.00 0.00 50 1016.9
20260508142203 53 147 3.0 5.0 0.00 0.00 0.00 50 1017.0
20260508142104 52 148 4.0 5.0 0.00 0.00 0.00 52 1016.9
20260508142003 52 148 4.0 5.0 0.00 0.00 0.00 51 1016.9
20260508141903 52 146 4.0 5.0 0.00 0.00 0.00 52 1016.9
20260508141804 52 143 5.0 5.0 0.00 0.00 0.00 52 1016.9
20260508141703 52 141 5.0 5.0 0.00 0.00 0.00 52 1016.9
20260508141503 52 129 6.0 6.0 0.00 0.00 0.00 52 1016.9
20260508141404 52 120 6.0 8.0 0.00 0.00 0.00 52 1016.9
20260508141303 52 110 6.0 10.0 0.00 0.00 0.00 52 1016.9
20260508141203 52 100 6.0 10.0 0.00 0.00 0.00 52 1017.0
20260508141103 52 94 6.0 10.0 0.00 0.00 0.00 53 1017.0
20260508141003 53 91 5.0 10.0 0.00 0.00 0.00 52 1016.9
20260508140904 53 90 5.0 10.0 0.00 0.00 0.00 53 1017.0
20260508140803 53 89 4.0 10.0 0.00 0.00 0.00 53 1017.0
20260508140603 53 87 3.0 10.0 0.00 0.00 0.00 51 1016.9
20260508140503 54 88 2.0 10.0 0.00 0.00 0.00 51 1017.0
20260508140403 54 88 2.0 10.0 0.00 0.00 0.00 49 1016.9
20260508140304 54 89 1.0 10.0 0.00 0.00 0.00 50 1016.9
20260508140203 54 90 1.0 10.0 0.00 0.00 0.00 51 1016.9
20260508140103 55 90 1.0 10.0 0.00 0.00 0.00 47 1016.8
20260508140003 55 92 0.0 10.0 0.00 0.00 0.00 47 1016.8
20260508135803 56 0 0.0 8.0 0.00 0.00 0.00 48 1016.4
20260508135603 57 0 0.0 1.0 0.00 0.00 0.00 48 1016.5
20260508135504 57 0 0.0 1.0 0.00 0.00 0.00 47 1016.5
20260508135403 57 0 0.0 0.0 0.00 0.00 0.00 47 1016.5
20260508135306 57 0 0.0 0.0 0.00 0.00 0.00 48 1016.5
20260508135203 57 0 0.0 0.0 0.00 0.00 0.00 48 1016.5
20260508135104 57 0 0.0 0.0 0.00 0.00 0.00 48 1016.4
20260508135003 56 0 0.0 0.0 0.00 0.00 0.00 48 1016.5
20260508134903 56 0 0.0 0.0 0.00 0.00 0.00 50 1016.4
20260508134804 56 0 0.0 0.0 0.00 0.00 0.00 51 1016.4
20260508134703 56 0 0.0 0.0 0.00 0.00 0.00 48 1016.4
20260508134603 56 0 0.0 0.0 0.00 0.00 0.00 47 1016.3
20260508134503 56 0 0.0 0.0 0.00 0.00 0.00 50 1016.4
20260508134404 56 0 0.0 1.0 0.00 0.00 0.00 50 1016.4
20260508134303 56 0 0.0 1.0 0.00 0.00 0.00 51 1016.4
20260508134203 56 0 0.0 1.0 0.00 0.00 0.00 51 1016.4
20260508134103 55 0 0.0 1.0 0.00 0.00 0.00 51 1016.4
20260508134004 55 0 0.0 1.0 0.00 0.00 0.00 51 1016.4
20260508133903 55 0 0.0 1.0 0.00 0.00 0.00 51 1016.4
20260508133803 54 0 0.0 1.0 0.00 0.00 0.00 54 1016.4
20260508133703 54 0 0.0 1.0 0.00 0.00 0.00 54 1016.3
20260508133603 54 0 0.0 1.0 0.00 0.00 0.00 53 1016.4
20260508133503 54 0 0.0 1.0 0.00 0.00 0.00 54 1016.4
20260508133403 54 0 0.0 0.0 0.00 0.00 0.00 54 1016.5
20260508133303 53 0 0.0 0.0 0.00 0.00 0.00 54 1016.4
20260508133203 53 0 0.0 0.0 0.00 0.00 0.00 55 1016.4
20260508133103 53 0 0.0 0.0 0.00 0.00 0.00 56 1016.5
20260508133003 53 0 0.0 0.0 0.00 0.00 0.00 56 1016.5
20260508132803 53 0 0.0 0.0 0.00 0.00 0.00 59 1016.4
20260508132703 52 0 0.0 0.0 0.00 0.00 0.00 56 1016.4
20260508132603 52 0 0.0 0.0 0.00 0.00 0.00 54 1016.3
20260508132503 52 0 0.0 0.0 0.00 0.00 0.00 55 1016.3
20260508132403 52 0 0.0 0.0 0.00 0.00 0.00 56 1016.4
20260508132306 52 0 0.0 0.0 0.00 0.00 0.00 59 1016.4
20260508132203 52 273 0.0 1.0 0.00 0.00 0.00 58 1016.5
20260508132104 51 273 0.0 1.0 0.00 0.00 0.00 59 1016.5
20260508132003 51 273 0.0 1.0 0.00 0.00 0.00 56 1016.3
20260508131903 51 273 0.0 1.0 0.00 0.00 0.00 56 1016.3
20260508131804 51 273 1.0 1.0 0.00 0.00 0.00 56 1016.3
20260508131703 51 273 1.0 1.0 0.00 0.00 0.00 57 1016.4
20260508131603 50 273 1.0 1.0 0.00 0.00 0.00 55 1016.3
20260508131503 50 273 1.0 1.0 0.00 0.00 0.00 57 1016.3
20260508131404 50 271 1.0 2.0 0.00 0.00 0.00 58 1016.5
20260508131303 50 270 1.0 2.0 0.00 0.00 0.00 55 1016.4
20260508131203 50 269 1.0 2.0 0.00 0.00 0.00 53 1016.5
20260508131103 50 269 1.0 2.0 0.00 0.00 0.00 55 1016.5
20260508131003 50 265 1.0 2.0 0.00 0.00 0.00 52 1016.4
20260508130903 49 255 1.0 2.0 0.00 0.00 0.00 53 1016.5
20260508130803 49 245 1.0 4.0 0.00 0.00 0.00 57 1016.4
20260508130703 49 240 2.0 4.0 0.00 0.00 0.00 58 1016.5
20260508130603 49 236 2.0 4.0 0.00 0.00 0.00 58 1016.4
20260508130503 49 233 2.0 4.0 0.00 0.00 0.00 58 1016.5
20260508130403 49 230 2.0 4.0 0.00 0.00 0.00 58 1016.5
20260508130303 49 225 2.0 4.0 0.00 0.00 0.00 59 1016.4
20260508130204 49 227 2.0 4.0 0.00 0.00 0.00 60 1016.4
20260508130103 49 228 2.0 4.0 0.00 0.00 0.00 59 1016.4
20260508130004 49 228 2.0 4.0 0.00 0.00 0.00 58 1016.4
20260508125903 48 227 2.0 4.0 0.00 0.00 0.00 57 1016.0
20260508125803 48 227 2.0 4.0 0.00 0.00 0.00 57 1016.1
20260508125703 48 228 2.0 4.0 0.00 0.00 0.00 58 1016.1
20260508125603 48 228 2.0 4.0 0.00 0.00 0.00 57 1016.1
20260508125503 48 231 2.0 4.0 0.00 0.00 0.00 56 1016.1
20260508125305 48 235 2.0 4.0 0.00 0.00 0.00 58 1016.0
20260508125103 48 240 2.0 4.0 0.00 0.00 0.00 58 1016.0
20260508124904 48 258 2.0 4.0 0.00 0.00 0.00 58 1016.1
20260508124803 48 268 2.0 4.0 0.00 0.00 0.00 56 1016.1
20260508124703 48 272 1.0 4.0 0.00 0.00 0.00 56 1016.1
20260508124603 48 273 1.0 4.0 0.00 0.00 0.00 56 1016.0
20260508124504 48 274 1.0 4.0 0.00 0.00 0.00 56 1016.1
20260508124403 48 277 1.0 4.0 0.00 0.00 0.00 55 1016.1
20260508124303 48 282 1.0 4.0 0.00 0.00 0.00 54 1015.9
20260508124103 48 302 1.0 4.0 0.00 0.00 0.00 54 1015.9
20260508124003 48 310 1.0 4.0 0.00 0.00 0.00 55 1016.0
20260508123903 48 311 1.0 4.0 0.00 0.00 0.00 55 1016.0
20260508123804 48 307 1.0 4.0 0.00 0.00 0.00 55 1016.0
20260508123703 48 305 1.0 4.0 0.00 0.00 0.00 55 1015.8
20260508123603 48 303 2.0 4.0 0.00 0.00 0.00 55 1015.8
20260508123503 48 306 2.0 4.0 0.00 0.00 0.00 56 1015.8
20260508123303 47 298 2.0 4.0 0.00 0.00 0.00 57 1015.7
20260508123203 47 290 3.0 4.0 0.00 0.00 0.00 58 1015.8
20260508123103 47 277 3.0 5.0 0.00 0.00 0.00 57 1015.8
20260508122903 47 273 3.0 5.0 0.00 0.00 0.00 57 1015.8
20260508122803 47 273 3.0 5.0 0.00 0.00 0.00 58 1015.8
20260508122704 47 272 3.0 5.0 0.00 0.00 0.00 58 1015.7
20260508122603 46 270 2.0 5.0 0.00 0.00 0.00 58 1015.7
20260508122503 46 268 2.0 5.0 0.00 0.00 0.00 58 1015.7
20260508122306 46 266 2.0 5.0 0.00 0.00 0.00 59 1015.7
20260508122203 46 267 2.0 5.0 0.00 0.00 0.00 59 1015.6
20260508122103 46 267 2.0 5.0 0.00 0.00 0.00 60 1015.7
20260508122003 45 267 2.0 5.0 0.00 0.00 0.00 60 1015.6
20260508121903 45 267 2.0 5.0 0.00 0.00 0.00 60 1015.7
20260508121803 45 267 2.0 5.0 0.00 0.00 0.00 60 1015.7
20260508121704 45 268 2.0 5.0 0.00 0.00 0.00 60 1015.6
20260508121603 45 271 2.0 5.0 0.00 0.00 0.00 60 1015.6
20260508121503 46 274 2.0 5.0 0.00 0.00 0.00 60 1015.6
20260508121403 46 279 2.0 5.0 0.00 0.00 0.00 59 1015.7
20260508121303 46 281 2.0 3.0 0.00 0.00 0.00 59 1015.6
20260508121203 46 272 3.0 3.0 0.00 0.00 0.00 59 1015.6
20260508121103 46 263 3.0 4.0 0.00 0.00 0.00 59 1015.6
20260508121004 46 252 3.0 6.0 0.00 0.00 0.00 60 1015.6
20260508120903 46 244 3.0 6.0 0.00 0.00 0.00 60 1015.6
20260508120803 45 241 4.0 6.0 0.00 0.00 0.00 60 1015.6
20260508120703 45 238 4.0 6.0 0.00 0.00 0.00 60 1015.5
20260508120603 45 237 4.0 6.0 0.00 0.00 0.00 61 1015.5
20260508120503 45 239 4.0 6.0 0.00 0.00 0.00 61 1015.6
20260508120403 45 242 4.0 6.0 0.00 0.00 0.00 61 1015.6
20260508120304 45 245 3.0 6.0 0.00 0.00 0.00 61 1015.6
20260508120203 46 248 3.0 6.0 0.00 0.00 0.00 61 1015.6
20260508120103 46 250 3.0 6.0 0.00 0.00 0.00 61 1015.6
20260508120003 46 256 3.0 6.0 0.00 0.00 0.00 60 1015.5
20260508115903 46 263 3.0 6.0 0.00 0.00 0.00 60 1015.5
20260508115803 46 270 2.0 6.0 0.00 0.00 0.00 59 1015.5
20260508115603 46 280 2.0 6.0 0.00 0.00 0.00 60 1015.6
20260508115504 45 283 2.0 6.0 0.00 0.00 0.00 60 1015.6
20260508115403 45 285 2.0 5.0 0.00 0.00 0.00 60 1015.7
20260508115306 46 284 2.0 5.0 0.00 0.00 0.00 60 1015.6
20260508115204 46 283 2.0 5.0 0.00 0.00 0.00 59 1015.6
20260508115003 46 276 2.0 5.0 0.00 0.00 0.00 59 1015.6
20260508114804 46 266 2.0 5.0 0.00 0.00 0.00 59 1015.5
20260508114703 46 266 2.0 5.0 0.00 0.00 0.00 60 1015.5
20260508114503 46 275 2.0 4.0 0.00 0.00 0.00 60 1015.5
20260508114404 45 278 2.0 4.0 0.00 0.00 0.00 60 1015.5
20260508114303 45 280 2.0 4.0 0.00 0.00 0.00 60 1015.5
20260508114203 45 282 2.0 4.0 0.00 0.00 0.00 61 1015.5
20260508114103 45 281 3.0 4.0 0.00 0.00 0.00 61 1015.5
20260508114003 45 281 3.0 4.0 0.00 0.00 0.00 60 1015.5
20260508113903 45 274 3.0 4.0 0.00 0.00 0.00 60 1015.6
20260508113803 45 266 3.0 5.0 0.00 0.00 0.00 60 1015.5
20260508113603 45 259 4.0 5.0 0.00 0.00 0.00 61 1015.5
20260508113403 45 261 4.0 8.0 0.00 0.00 0.00 61 1015.5
20260508113303 45 263 4.0 8.0 0.00 0.00 0.00 61 1015.4
20260508113203 45 266 4.0 8.0 0.00 0.00 0.00 61 1015.4
20260508113103 45 269 4.0 8.0 0.00 0.00 0.00 61 1015.4
20260508113004 45 271 4.0 8.0 0.00 0.00 0.00 61 1015.4
20260508112903 45 277 3.0 8.0 0.00 0.00 0.00 61 1015.4
20260508112803 45 284 3.0 8.0 0.00 0.00 0.00 61 1015.5
20260508112703 45 288 3.0 8.0 0.00 0.00 0.00 62 1015.5
20260508112603 45 289 3.0 8.0 0.00 0.00 0.00 62 1015.5
20260508112503 44 290 3.0 8.0 0.00 0.00 0.00 62 1015.5
20260508112404 44 293 3.0 5.0 0.00 0.00 0.00 62 1015.5
20260508112306 45 292 4.0 5.0 0.00 0.00 0.00 61 1015.5
20260508112203 45 290 4.0 5.0 0.00 0.00 0.00 61 1015.6
20260508112104 45 287 4.0 5.0 0.00 0.00 0.00 60 1015.5
20260508112003 46 280 4.0 6.0 0.00 0.00 0.00 59 1015.5
20260508111903 46 271 4.0 7.0 0.00 0.00 0.00 59 1015.5
20260508111803 46 262 4.0 9.0 0.00 0.00 0.00 59 1015.5
20260508111703 46 251 4.0 9.0 0.00 0.00 0.00 59 1015.4
20260508111503 46 247 4.0 9.0 0.00 0.00 0.00 59 1015.4
20260508111403 46 246 4.0 9.0 0.00 0.00 0.00 59 1015.4
20260508111303 46 246 4.0 9.0 0.00 0.00 0.00 59 1015.4
20260508111103 46 248 3.0 9.0 0.00 0.00 0.00 59 1015.4
20260508111003 46 249 3.0 9.0 0.00 0.00 0.00 58 1015.4
20260508110904 46 250 3.0 9.0 0.00 0.00 0.00 58 1015.6
20260508110803 46 253 2.0 8.0 0.00 0.00 0.00 59 1015.6
20260508110703 47 258 2.0 6.0 0.00 0.00 0.00 58 1015.5
20260508110604 47 265 2.0 6.0 0.00 0.00 0.00 58 1015.5
20260508110503 47 270 2.0 6.0 0.00 0.00 0.00 58 1015.6
20260508110403 46 274 2.0 6.0 0.00 0.00 0.00 58 1015.6
20260508110304 46 279 2.0 5.0 0.00 0.00 0.00 58 1015.5
20260508110203 46 285 2.0 4.0 0.00 0.00 0.00 58 1015.5
20260508110004 46 288 3.0 4.0 0.00 0.00 0.00 58 1015.5
20260508105903 46 277 3.0 7.0 0.00 0.00 0.00 58 1015.5
20260508105803 46 266 3.0 7.0 0.00 0.00 0.00 58 1015.4
20260508105703 46 257 3.0 7.0 0.00 0.00 0.00 58 1015.4
20260508105603 47 252 3.0 7.0 0.00 0.00 0.00 58 1015.4
20260508105504 47 251 3.0 7.0 0.00 0.00 0.00 58 1015.4
20260508105403 47 252 3.0 7.0 0.00 0.00 0.00 58 1015.4
20260508105306 47 254 3.0 7.0 0.00 0.00 0.00 59 1015.6
20260508105203 47 255 3.0 7.0 0.00 0.00 0.00 58 1015.5
20260508105104 47 256 3.0 7.0 0.00 0.00 0.00 58 1015.6
20260508105003 47 256 3.0 7.0 0.00 0.00 0.00 58 1015.6
20260508104903 47 256 2.0 7.0 0.00 0.00 0.00 58 1015.7
20260508104803 48 259 2.0 7.0 0.00 0.00 0.00 56 1015.6
20260508104703 48 262 2.0 7.0 0.00 0.00 0.00 56 1015.7
20260508104603 48 264 2.0 7.0 0.00 0.00 0.00 56 1015.7
20260508104503 48 265 2.0 7.0 0.00 0.00 0.00 56 1015.7
20260508104404 48 266 3.0 4.0 0.00 0.00 0.00 56 1015.6
20260508104303 48 265 3.0 4.0 0.00 0.00 0.00 56 1015.5
20260508104203 47 262 3.0 4.0 0.00 0.00 0.00 57 1015.6
20260508104103 47 259 3.0 4.0 0.00 0.00 0.00 57 1015.6
20260508104004 47 255 3.0 5.0 0.00 0.00 0.00 57 1015.6
20260508103903 47 252 4.0 5.0 0.00 0.00 0.00 57 1015.5
20260508103803 47 251 4.0 6.0 0.00 0.00 0.00 58 1015.6
20260508103703 47 249 4.0 7.0 0.00 0.00 0.00 58 1015.6
20260508103603 47 247 4.0 7.0 0.00 0.00 0.00 57 1015.5
20260508103503 48 244 4.0 7.0 0.00 0.00 0.00 57 1015.5
20260508103303 48 242 3.0 7.0 0.00 0.00 0.00 56 1015.5
20260508103103 48 243 3.0 7.0 0.00 0.00 0.00 56 1015.5
20260508103003 48 245 3.0 7.0 0.00 0.00 0.00 57 1015.5
20260508102904 48 247 3.0 7.0 0.00 0.00 0.00 57 1015.5
20260508102803 48 249 3.0 7.0 0.00 0.00 0.00 57 1015.5
20260508102703 48 253 4.0 7.0 0.00 0.00 0.00 57 1015.5
20260508102504 48 262 4.0 5.0 0.00 0.00 0.00 55 1015.4
20260508102403 48 262 4.0 5.0 0.00 0.00 0.00 56 1015.5
20260508102306 48 260 4.0 5.0 0.00 0.00 0.00 56 1015.5
20260508102204 48 257 4.0 6.0 0.00 0.00 0.00 55 1015.4
20260508102103 48 255 4.0 6.0 0.00 0.00 0.00 56 1015.5
20260508102003 48 253 3.0 6.0 0.00 0.00 0.00 56 1015.5
20260508101904 48 250 3.0 7.0 0.00 0.00 0.00 56 1015.6
20260508101803 48 246 3.0 7.0 0.00 0.00 0.00 56 1015.6
20260508101703 48 243 3.0 7.0 0.00 0.00 0.00 56 1015.6
20260508101604 48 241 2.0 7.0 0.00 0.00 0.00 56 1015.6
20260508101503 48 240 2.0 7.0 0.00 0.00 0.00 56 1015.6
20260508101403 48 240 2.0 7.0 0.00 0.00 0.00 56 1015.6
20260508101303 48 239 2.0 7.0 0.00 0.00 0.00 56 1015.6
20260508101203 48 239 2.0 7.0 0.00 0.00 0.00 56 1015.5
20260508101103 48 238 1.0 7.0 0.00 0.00 0.00 57 1015.6
20260508101003 48 237 1.0 7.0 0.00 0.00 0.00 57 1015.6
20260508100803 48 237 1.0 5.0 0.00 0.00 0.00 56 1015.6
20260508100703 48 239 1.0 3.0 0.00 0.00 0.00 56 1015.6
20260508100603 48 243 1.0 2.0 0.00 0.00 0.00 56 1015.5
20260508100504 48 246 1.0 2.0 0.00 0.00 0.00 56 1015.5
20260508100403 48 249 2.0 2.0 0.00 0.00 0.00 56 1015.5
20260508100303 48 255 2.0 4.0 0.00 0.00 0.00 56 1015.5
20260508100204 48 259 2.0 4.0 0.00 0.00 0.00 56 1015.4
20260508100003 47 272 2.0 4.0 0.00 0.00 0.00 57 1015.4
20260508095903 47 277 2.0 4.0 0.00 0.00 0.00 57 1015.4
20260508095803 47 279 2.0 4.0 0.00 0.00 0.00 57 1015.4
20260508095703 47 278 1.0 4.0 0.00 0.00 0.00 57 1015.4
20260508095603 47 275 1.0 4.0 0.00 0.00 0.00 57 1015.4
20260508095504 47 273 1.0 4.0 0.00 0.00 0.00 57 1015.4
20260508095403 47 272 1.0 4.0 0.00 0.00 0.00 57 1015.4
20260508095306 47 270 1.0 4.0 0.00 0.00 0.00 57 1015.4
20260508095203 47 270 0.0 4.0 0.00 0.00 0.00 57 1015.3
20260508095103 47 266 0.0 4.0 0.00 0.00 0.00 57 1015.4
20260508095003 47 261 0.0 4.0 0.00 0.00 0.00 57 1015.4
20260508094904 47 255 0.0 4.0 0.00 0.00 0.00 58 1015.3
20260508094803 47 248 0.0 2.0 0.00 0.00 0.00 58 1015.4
20260508094603 47 0 0.0 2.0 0.00 0.00 0.00 58 1015.5
20260508094503 47 0 0.0 2.0 0.00 0.00 0.00 57 1015.4
20260508094404 47 0 0.0 2.0 0.00 0.00 0.00 57 1015.4
20260508094304 49 0 0.0 0.0 0.00 0.00 0.00 54 1015.4
20260508094203 49 0 0.0 0.0 0.00 0.00 0.00 54 1015.4
20260508094103 49 0 0.0 0.0 0.00 0.00 0.00 53 1015.4
20260508093803 49 0 0.0 0.0 0.00 0.00 0.00 53 1015.5
20260508093703 49 0 0.0 0.0 0.00 0.00 0.00 53 1015.4
20260508093603 49 0 0.0 0.0 0.00 0.00 0.00 52 1015.4
20260508093504 50 0 0.0 0.0 0.00 0.00 0.00 52 1015.3
20260508093403 50 0 0.0 0.0 0.00 0.00 0.00 52 1015.5
20260508093303 50 0 0.0 0.0 0.00 0.00 0.00 52 1015.4
20260508093203 50 0 0.0 0.0 0.00 0.00 0.00 52 1015.5
20260508093103 50 0 0.0 0.0 0.00 0.00 0.00 52 1015.5
20260508093003 50 0 0.0 0.0 0.00 0.00 0.00 53 1015.6
20260508092903 50 0 0.0 0.0 0.00 0.00 0.00 52 1015.6
20260508092804 50 0 0.0 0.0 0.00 0.00 0.00 52 1015.6
20260508092703 50 0 0.0 0.0 0.00 0.00 0.00 53 1015.7
20260508092603 49 0 0.0 0.0 0.00 0.00 0.00 53 1015.6
20260508092503 49 0 0.0 0.0 0.00 0.00 0.00 53 1015.6
20260508092404 49 0 0.0 0.0 0.00 0.00 0.00 53 1015.6
20260508092312 49 0 0.0 0.0 0.00 0.00 0.00 53 1015.6
20260508092203 49 0 0.0 0.0 0.00 0.00 0.00 53 1015.5
20260508092103 49 0 0.0 0.0 0.00 0.00 0.00 53 1015.5
20260508092004 49 0 0.0 0.0 0.00 0.00 0.00 53 1015.5
20260508091903 49 0 0.0 0.0 0.00 0.00 0.00 53 1015.6
20260508091603 50 0 0.0 0.0 0.00 0.00 0.00 52 1015.6
20260508091503 50 0 0.0 0.0 0.00 0.00 0.00 52 1015.7
20260508091403 50 0 0.0 0.0 0.00 0.00 0.00 52 1015.7
20260508091303 50 0 0.0 0.0 0.00 0.00 0.00 52 1015.7
20260508091203 50 0 0.0 0.0 0.00 0.00 0.00 52 1015.7
20260508091104 50 0 0.0 0.0 0.00 0.00 0.00 52 1015.7
20260508091003 50 0 0.0 0.0 0.00 0.00 0.00 52 1015.7
20260508090903 50 0 0.0 0.0 0.00 0.00 0.00 52 1015.8
20260508090804 50 0 0.0 0.0 0.00 0.00 0.00 52 1015.8
20260508090703 50 0 0.0 0.0 0.00 0.00 0.00 52 1015.8
20260508090603 50 0 0.0 0.0 0.00 0.00 0.00 51 1015.8
20260508090503 50 0 0.0 0.0 0.00 0.00 0.00 52 1015.8
20260508090403 50 0 0.0 0.0 0.00 0.00 0.00 52 1015.7
20260508090303 50 0 0.0 0.0 0.00 0.00 0.00 52 1015.8
20260508090203 49 0 0.0 0.0 0.00 0.00 0.00 52 1015.7
20260508090104 49 0 0.0 0.0 0.00 0.00 0.00 52 1015.7
20260508090004 49 0 0.0 0.0 0.00 0.00 0.00 52 1015.3
20260508085903 49 0 0.0 0.0 0.00 0.00 0.00 52 1015.2
20260508085803 48 0 0.0 0.0 0.00 0.00 0.00 53 1015.4
20260508085704 48 0 0.0 0.0 0.00 0.00 0.00 53 1015.4
20260508085603 48 0 0.0 0.0 0.00 0.00 0.00 53 1015.3
20260508085503 48 0 0.0 0.0 0.00 0.00 0.00 53 1015.3
20260508085403 48 0 0.0 0.0 0.00 0.00 0.00 53 1015.4
20260508085306 49 0 0.0 0.0 0.00 0.00 0.00 53 1015.4
20260508085203 49 0 0.0 0.0 0.00 0.00 0.00 52 1015.4
20260508085103 49 0 0.0 0.0 0.00 0.00 0.00 52 1015.4
20260508085004 49 0 0.0 0.0 0.00 0.00 0.00 52 1015.4
20260508084903 50 0 0.0 0.0 0.00 0.00 0.00 51 1015.4
20260508084803 50 0 0.0 0.0 0.00 0.00 0.00 50 1015.4
20260508084703 50 0 0.0 0.0 0.00 0.00 0.00 50 1015.4
20260508084503 51 0 0.0 0.0 0.00 0.00 0.00 49 1015.4
20260508084403 52 0 0.0 0.0 0.00 0.00 0.00 48 1015.4
20260508084303 52 0 0.0 0.0 0.00 0.00 0.00 48 1015.4
20260508084204 52 0 0.0 0.0 0.00 0.00 0.00 48 1015.4
20260508084103 52 0 0.0 0.0 0.00 0.00 0.00 48 1015.3
20260508083903 51 0 0.0 0.0 0.00 0.00 0.00 49 1015.3
20260508083804 51 0 0.0 0.0 0.00 0.00 0.00 49 1015.3
20260508083703 50 0 0.0 0.0 0.00 0.00 0.00 49 1015.3
20260508083603 50 0 0.0 0.0 0.00 0.00 0.00 49 1015.3
20260508083503 50 0 0.0 0.0 0.00 0.00 0.00 50 1015.2
20260508083403 49 0 0.0 0.0 0.00 0.00 0.00 51 1015.4
20260508083303 49 0 0.0 0.0 0.00 0.00 0.00 51 1015.3
20260508083203 49 0 0.0 0.0 0.00 0.00 0.00 51 1015.4
20260508083104 49 0 0.0 0.0 0.00 0.00 0.00 51 1015.4
20260508083003 49 0 0.0 0.0 0.00 0.00 0.00 51 1015.5
20260508082903 49 0 0.0 0.0 0.00 0.00 0.00 51 1015.6
20260508082803 50 0 0.0 0.0 0.00 0.00 0.00 50 1015.4
20260508082704 50 0 0.0 0.0 0.00 0.00 0.00 50 1015.5
20260508082603 50 0 0.0 0.0 0.00 0.00 0.00 50 1015.5
20260508082503 51 0 0.0 0.0 0.00 0.00 0.00 49 1015.6
20260508082403 51 0 0.0 0.0 0.00 0.00 0.00 48 1015.5
20260508082306 51 0 0.0 0.0 0.00 0.00 0.00 48 1015.6
20260508082203 51 0 0.0 0.0 0.00 0.00 0.00 48 1015.5
20260508082103 51 0 0.0 0.0 0.00 0.00 0.00 48 1015.6
20260508082003 51 0 0.0 0.0 0.00 0.00 0.00 47 1015.5
20260508081803 51 0 0.0 0.0 0.00 0.00 0.00 47 1015.4
20260508081703 51 0 0.0 0.0 0.00 0.00 0.00 47 1015.4
20260508081603 51 0 0.0 0.0 0.00 0.00 0.00 47 1015.5
20260508081504 52 0 0.0 0.0 0.00 0.00 0.00 46 1015.5
20260508081403 52 0 0.0 0.0 0.00 0.00 0.00 46 1015.6
20260508081303 52 0 0.0 0.0 0.00 0.00 0.00 46 1015.6
20260508081204 53 0 0.0 0.0 0.00 0.00 0.00 45 1015.7
20260508081104 53 0 0.0 0.0 0.00 0.00 0.00 44 1015.7
20260508081003 54 0 0.0 0.0 0.00 0.00 0.00 44 1015.6
20260508080804 54 0 0.0 0.0 0.00 0.00 0.00 42 1015.4
20260508080703 53 0 0.0 0.0 0.00 0.00 0.00 42 1015.5
20260508080603 53 0 0.0 0.0 0.00 0.00 0.00 43 1015.4
20260508080503 53 0 0.0 0.0 0.00 0.00 0.00 44 1015.4
20260508080403 52 0 0.0 0.0 0.00 0.00 0.00 44 1015.4
20260508080304 52 0 0.0 0.0 0.00 0.00 0.00 44 1015.4
20260508080203 52 0 0.0 0.0 0.00 0.00 0.00 45 1015.4
20260508080004 52 0 0.0 0.0 0.00 0.00 0.00 46 1015.6
20260508075903 52 0 0.0 0.0 0.00 0.00 0.00 46 1015.6
20260508075803 52 0 0.0 0.0 0.00 0.00 0.00 45 1015.5
20260508075704 52 0 0.0 0.0 0.00 0.00 0.00 45 1015.5
20260508075603 52 0 0.0 0.0 0.00 0.00 0.00 44 1015.5
20260508075503 52 0 0.0 0.0 0.00 0.00 0.00 44 1015.5
20260508075403 52 0 1.0 0.0 0.00 0.00 0.00 45 1015.4
20260508075308 52 0 1.0 0.0 0.00 0.00 0.00 45 1015.5
20260508075203 51 261 1.0 1.0 0.00 0.00 0.00 46 1015.5
20260508075103 51 261 1.0 1.0 0.00 0.00 0.00 46 1015.5
20260508075004 51 261 1.0 1.0 0.00 0.00 0.00 47 1015.5
20260508074903 50 253 2.0 4.0 0.00 0.00 0.00 47 1015.5
20260508074803 50 252 2.0 6.0 0.00 0.00 0.00 48 1015.5
20260508074603 51 253 1.0 7.0 0.00 0.00 0.00 48 1015.5
20260508074504 51 254 1.0 7.0 0.00 0.00 0.00 48 1015.7
20260508074403 51 255 1.0 7.0 0.00 0.00 0.00 48 1015.7
20260508074303 51 255 1.0 7.0 0.00 0.00 0.00 48 1015.6
20260508074103 51 255 0.0 7.0 0.00 0.00 0.00 48 1015.8
20260508073904 51 255 0.0 7.0 0.00 0.00 0.00 47 1015.7
20260508073703 52 260 0.0 7.0 0.00 0.00 0.00 46 1015.6
20260508073503 52 260 1.0 6.0 0.00 0.00 0.00 46 1015.6
20260508073404 52 0 1.0 0.0 0.00 0.00 0.00 46 1015.7
20260508073303 52 0 1.0 0.0 0.00 0.00 0.00 46 1015.8
20260508073203 52 0 1.0 0.0 0.00 0.00 0.00 46 1015.8
20260508073103 52 0 2.0 0.0 0.00 0.00 0.00 46 1015.8
20260508073003 52 228 2.0 6.0 0.00 0.00 0.00 45 1015.7
20260508072903 52 228 2.0 6.0 0.00 0.00 0.00 46 1015.8
20260508072804 52 227 2.0 6.0 0.00 0.00 0.00 45 1015.6
20260508072703 52 226 2.0 6.0 0.00 0.00 0.00 44 1015.7
20260508072604 52 225 2.0 6.0 0.00 0.00 0.00 44 1015.7
20260508072503 52 225 1.0 6.0 0.00 0.00 0.00 46 1015.8
20260508072403 52 227 1.0 6.0 0.00 0.00 0.00 46 1015.9
20260508072307 52 227 1.0 6.0 0.00 0.00 0.00 46 1015.9
20260508072203 52 227 1.0 6.0 0.00 0.00 0.00 46 1015.8
20260508072103 52 227 0.0 6.0 0.00 0.00 0.00 45 1015.7
20260508072003 52 227 0.0 6.0 0.00 0.00 0.00 45 1015.7
20260508071903 52 226 0.0 6.0 0.00 0.00 0.00 46 1015.7
20260508071803 51 227 0.0 6.0 0.00 0.00 0.00 46 1015.8
20260508071703 51 0 0.0 6.0 0.00 0.00 0.00 47 1015.8
20260508071604 51 0 0.0 5.0 0.00 0.00 0.00 47 1015.8
20260508071403 51 0 0.0 5.0 0.00 0.00 0.00 47 1015.8
20260508071303 51 0 0.0 5.0 0.00 0.00 0.00 47 1015.8
20260508071204 51 0 0.0 5.0 0.00 0.00 0.00 47 1015.8
20260508071103 51 0 0.0 5.0 0.00 0.00 0.00 47 1015.8
20260508071003 51 0 0.0 5.0 0.00 0.00 0.00 47 1015.8
20260508070904 51 0 0.0 5.0 0.00 0.00 0.00 47 1015.9
20260508070803 51 0 0.0 5.0 0.00 0.00 0.00 47 1015.9
20260508070703 51 0 0.0 0.0 0.00 0.00 0.00 48 1016.0
20260508070603 51 0 0.0 0.0 0.00 0.00 0.00 48 1016.0
20260508070504 51 0 0.0 0.0 0.00 0.00 0.00 47 1015.9
20260508070403 51 0 0.0 0.0 0.00 0.00 0.00 47 1015.9
20260508070303 51 0 0.0 0.0 0.00 0.00 0.00 47 1015.9
20260508070203 51 0 0.0 0.0 0.00 0.00 0.00 48 1015.9
20260508070104 51 0 0.0 0.0 0.00 0.00 0.00 48 1016.0
20260508070004 51 0 0.0 0.0 0.00 0.00 0.00 47 1015.5
20260508065903 51 0 0.0 0.0 0.00 0.00 0.00 47 1015.6
20260508065804 52 0 0.0 0.0 0.00 0.00 0.00 47 1015.6
20260508065703 52 0 0.0 0.0 0.00 0.00 0.00 47 1015.6
20260508065603 52 0 0.0 1.0 0.00 0.00 0.00 46 1015.4
20260508065503 52 0 0.0 1.0 0.00 0.00 0.00 46 1015.4
20260508065404 52 0 0.0 1.0 0.00 0.00 0.00 46 1015.3
20260508065306 52 0 0.0 1.0 0.00 0.00 0.00 46 1015.4
20260508065203 52 0 0.0 1.0 0.00 0.00 0.00 47 1015.5
20260508065104 52 0 0.0 1.0 0.00 0.00 0.00 47 1015.3
20260508064903 52 0 0.0 1.0 0.00 0.00 0.00 45 1015.3
20260508064803 52 0 0.0 1.0 0.00 0.00 0.00 46 1015.4
20260508064703 52 0 0.0 1.0 0.00 0.00 0.00 46 1015.3
20260508064603 52 0 0.0 1.0 0.00 0.00 0.00 46 1015.3
20260508064503 52 0 0.0 0.0 0.00 0.00 0.00 46 1015.3
20260508064403 52 0 0.0 0.0 0.00 0.00 0.00 46 1015.3
20260508064304 51 0 0.0 0.0 0.00 0.00 0.00 45 1015.3
20260508064203 51 0 0.0 0.0 0.00 0.00 0.00 46 1015.3
20260508064103 51 0 0.0 0.0 0.00 0.00 0.00 46 1015.4
20260508064004 51 0 0.0 1.0 0.00 0.00 0.00 46 1015.3
20260508063903 51 0 0.0 1.0 0.00 0.00 0.00 47 1015.3
20260508063803 51 0 0.0 1.0 0.00 0.00 0.00 47 1015.5
20260508063703 52 0 0.0 1.0 0.00 0.00 0.00 47 1015.5
20260508063604 52 0 0.0 1.0 0.00 0.00 0.00 47 1015.5
20260508063503 52 0 0.0 1.0 0.00 0.00 0.00 46 1015.3
20260508063403 52 0 0.0 1.0 0.00 0.00 0.00 45 1015.3
20260508063303 52 0 0.0 1.0 0.00 0.00 0.00 45 1015.4
20260508063204 52 0 0.0 1.0 0.00 0.00 0.00 46 1015.3
20260508063103 52 0 0.0 1.0 0.00 0.00 0.00 46 1015.5
20260508063003 52 0 0.0 1.0 0.00 0.00 0.00 46 1015.4
20260508062904 52 0 0.0 0.0 0.00 0.00 0.00 45 1015.5
20260508062803 53 0 0.0 0.0 0.00 0.00 0.00 45 1015.5
20260508062703 53 0 0.0 0.0 0.00 0.00 0.00 45 1015.4
20260508062604 53 0 0.0 0.0 0.00 0.00 0.00 45 1015.4
20260508062504 53 0 0.0 0.0 0.00 0.00 0.00 45 1015.4
20260508062403 53 0 0.0 0.0 0.00 0.00 0.00 45 1015.4
20260508062306 54 0 0.0 0.0 0.00 0.00 0.00 46 1015.5
20260508062103 53 0 0.0 0.0 0.00 0.00 0.00 44 1015.3
20260508062003 53 0 0.0 0.0 0.00 0.00 0.00 45 1015.3
20260508061903 53 0 0.0 0.0 0.00 0.00 0.00 45 1015.3
20260508061803 52 0 0.0 0.0 0.00 0.00 0.00 46 1015.3
20260508061704 52 0 0.0 0.0 0.00 0.00 0.00 45 1015.2
20260508061603 52 0 0.0 0.0 0.00 0.00 0.00 45 1015.2
20260508061503 51 0 0.0 0.0 0.00 0.00 0.00 46 1015.1
20260508061403 51 0 0.0 0.0 0.00 0.00 0.00 46 1015.2
20260508061203 51 0 0.0 0.0 0.00 0.00 0.00 47 1015.2
20260508061103 51 0 0.0 0.0 0.00 0.00 0.00 47 1015.2
20260508061003 51 0 0.0 0.0 0.00 0.00 0.00 47 1015.3
20260508060904 51 0 0.0 0.0 0.00 0.00 0.00 47 1015.2
20260508060803 51 0 0.0 0.0 0.00 0.00 0.00 47 1015.2
20260508060703 51 0 0.0 0.0 0.00 0.00 0.00 47 1015.3
20260508060604 51 0 0.0 0.0 0.00 0.00 0.00 47 1015.3
20260508060504 51 0 0.0 0.0 0.00 0.00 0.00 47 1015.3
20260508060403 51 0 0.0 0.0 0.00 0.00 0.00 47 1015.2
20260508060304 51 0 0.0 2.0 0.00 0.00 0.00 46 1015.2
20260508060203 51 0 0.0 2.0 0.00 0.00 0.00 47 1015.2
20260508055903 51 0 0.0 2.0 0.00 0.00 0.00 48 1015.3
20260508055804 51 0 0.0 2.0 0.00 0.00 0.00 48 1015.3
20260508055703 51 0 0.0 2.0 0.00 0.00 0.00 48 1015.3
20260508055603 51 0 0.0 2.0 0.00 0.00 0.00 48 1015.3
20260508055503 51 0 0.0 2.0 0.00 0.00 0.00 48 1015.3
20260508055404 51 0 0.0 2.0 0.00 0.00 0.00 48 1015.3
20260508055306 52 0 0.0 1.0 0.00 0.00 0.00 48 1015.3
20260508055203 52 0 0.0 0.0 0.00 0.00 0.00 48 1015.2
20260508055103 52 0 0.0 0.0 0.00 0.00 0.00 47 1015.3
20260508055004 52 0 0.0 1.0 0.00 0.00 0.00 47 1015.2
20260508054903 52 0 0.0 1.0 0.00 0.00 0.00 47 1015.2
20260508054803 51 0 0.0 1.0 0.00 0.00 0.00 47 1015.2
20260508054703 51 0 0.0 1.0 0.00 0.00 0.00 48 1015.2
20260508054604 51 0 0.0 1.0 0.00 0.00 0.00 48 1015.2
20260508054403 51 0 0.0 1.0 0.00 0.00 0.00 49 1015.3
20260508054303 51 0 0.0 1.0 0.00 0.00 0.00 49 1015.4
20260508054204 51 0 0.0 1.0 0.00 0.00 0.00 50 1015.4
20260508054103 51 0 0.0 1.0 0.00 0.00 0.00 49 1015.4
20260508054003 52 0 0.0 1.0 0.00 0.00 0.00 50 1015.4
20260508053703 52 0 0.0 0.0 0.00 0.00 0.00 50 1015.3
20260508053603 52 0 0.0 0.0 0.00 0.00 0.00 50 1015.4
20260508053503 52 0 0.0 0.0 0.00 0.00 0.00 51 1015.3
20260508053304 51 0 0.0 0.0 0.00 0.00 0.00 52 1015.3
20260508053103 51 0 0.0 0.0 0.00 0.00 0.00 52 1015.3
20260508053003 51 0 0.0 0.0 0.00 0.00 0.00 53 1015.3
20260508052904 51 0 0.0 0.0 0.00 0.00 0.00 52 1015.3
20260508052803 52 0 0.0 0.0 0.00 0.00 0.00 51 1015.4
20260508052703 52 0 0.0 0.0 0.00 0.00 0.00 51 1015.3
20260508052603 52 0 0.0 0.0 0.00 0.00 0.00 52 1015.4
20260508052504 52 0 0.0 0.0 0.00 0.00 0.00 52 1015.4
20260508052403 52 0 0.0 0.0 0.00 0.00 0.00 51 1015.5
20260508052306 52 0 0.0 0.0 0.00 0.00 0.00 51 1015.6
20260508052203 52 0 0.0 0.0 0.00 0.00 0.00 51 1015.5
20260508052103 53 0 0.0 0.0 0.00 0.00 0.00 52 1015.5
20260508052003 53 0 0.0 0.0 0.00 0.00 0.00 52 1015.5
20260508051903 53 0 0.0 0.0 0.00 0.00 0.00 52 1015.5
20260508051804 53 0 0.0 0.0 0.00 0.00 0.00 52 1015.5
20260508051703 53 0 0.0 0.0 0.00 0.00 0.00 52 1015.4
20260508051603 52 0 0.0 0.0 0.00 0.00 0.00 52 1015.4
20260508051503 52 0 0.0 0.0 0.00 0.00 0.00 52 1015.4
20260508051404 52 0 0.0 0.0 0.00 0.00 0.00 52 1015.4
20260508051303 52 0 0.0 0.0 0.00 0.00 0.00 52 1015.5
20260508051104 52 0 0.0 0.0 0.00 0.00 0.00 52 1015.5
20260508051004 52 0 0.0 0.0 0.00 0.00 0.00 52 1015.6
20260508050903 52 0 0.0 0.0 0.00 0.00 0.00 53 1015.6
20260508050803 52 0 0.0 0.0 0.00 0.00 0.00 53 1015.6
20260508050704 52 0 0.0 0.0 0.00 0.00 0.00 53 1015.6
20260508050603 52 0 0.0 0.0 0.00 0.00 0.00 53 1015.6
20260508050503 52 0 0.0 0.0 0.00 0.00 0.00 53 1015.6
20260508050404 52 0 0.0 0.0 0.00 0.00 0.00 54 1015.6
20260508050303 52 0 0.0 0.0 0.00 0.00 0.00 54 1015.5
20260508050203 52 0 0.0 0.0 0.00 0.00 0.00 54 1015.6
20260508050103 52 0 0.0 0.0 0.00 0.00 0.00 53 1015.6
20260508045903 52 0 0.0 0.0 0.00 0.00 0.00 53 1015.6
20260508045803 52 0 0.0 0.0 0.00 0.00 0.00 54 1015.6
20260508045703 52 0 0.0 0.0 0.00 0.00 0.00 54 1015.6
20260508045604 52 0 0.0 0.0 0.00 0.00 0.00 54 1015.7
20260508045503 52 0 0.0 0.0 0.00 0.00 0.00 55 1015.6
20260508045403 52 0 0.0 0.0 0.00 0.00 0.00 54 1015.6
20260508045306 51 0 0.0 0.0 0.00 0.00 0.00 55 1015.6
20260508045103 51 0 0.0 0.0 0.00 0.00 0.00 56 1015.7
20260508045003 51 0 0.0 0.0 0.00 0.00 0.00 56 1015.7
20260508044904 51 0 0.0 0.0 0.00 0.00 0.00 56 1015.7
20260508044803 51 0 0.0 0.0 0.00 0.00 0.00 56 1015.8
20260508044703 51 0 0.0 0.0 0.00 0.00 0.00 56 1015.7
20260508044603 51 0 0.0 0.0 0.00 0.00 0.00 57 1015.8
20260508044403 51 0 0.0 0.0 0.00 0.00 0.00 58 1015.8
20260508044303 51 0 0.0 0.0 0.00 0.00 0.00 58 1015.8
20260508044203 51 0 0.0 0.0 0.00 0.00 0.00 58 1015.7
20260508044104 51 0 0.0 0.0 0.00 0.00 0.00 59 1015.8
20260508044003 51 0 0.0 0.0 0.00 0.00 0.00 59 1015.9
20260508043903 51 0 0.0 0.0 0.00 0.00 0.00 59 1015.8
20260508043804 50 0 0.0 0.0 0.00 0.00 0.00 59 1015.8
20260508043603 50 0 0.0 0.0 0.00 0.00 0.00 59 1015.4
20260508043503 50 0 0.0 0.0 0.00 0.00 0.00 59 1015.3
20260508043403 50 0 0.0 0.0 0.00 0.00 0.00 59 1015.4
20260508043304 50 0 0.0 0.0 0.00 0.00 0.00 59 1015.4
20260508043203 50 0 0.0 0.0 0.00 0.00 0.00 59 1015.4
20260508043103 50 0 0.0 0.0 0.00 0.00 0.00 60 1015.4
20260508043003 50 0 0.0 0.0 0.00 0.00 0.00 60 1015.4
20260508042904 50 0 0.0 0.0 0.00 0.00 0.00 60 1015.5
20260508042803 50 0 0.0 0.0 0.00 0.00 0.00 59 1015.5
20260508042703 50 0 0.0 0.0 0.00 0.00 0.00 59 1015.4
20260508042604 50 0 0.0 0.0 0.00 0.00 0.00 59 1015.8
20260508042403 51 0 0.0 0.0 0.00 0.00 0.00 58 1015.8
20260508042306 51 0 0.0 0.0 0.00 0.00 0.00 58 1015.8
20260508042204 51 0 0.0 0.0 0.00 0.00 0.00 58 1015.8
20260508042104 51 0 0.0 0.0 0.00 0.00 0.00 58 1015.9
20260508042003 52 0 0.0 0.0 0.00 0.00 0.00 58 1015.9
20260508041903 52 0 0.0 0.0 0.00 0.00 0.00 58 1015.9
20260508041804 52 0 0.0 0.0 0.00 0.00 0.00 57 1015.9
20260508041703 52 0 0.0 0.0 0.00 0.00 0.00 57 1015.9
20260508041503 52 0 0.0 0.0 0.00 0.00 0.00 57 1016.1
20260508041404 53 0 0.0 0.0 0.00 0.00 0.00 56 1016.1
20260508041303 53 0 0.0 0.0 0.00 0.00 0.00 56 1016.0
20260508041203 53 0 0.0 0.0 0.00 0.00 0.00 54 1015.9
20260508041103 53 0 0.0 0.0 0.00 0.00 0.00 54 1015.9
20260508041004 53 0 0.0 0.0 0.00 0.00 0.00 54 1016.0
20260508040903 53 0 0.0 0.0 0.00 0.00 0.00 54 1016.0
20260508040803 53 0 0.0 0.0 0.00 0.00 0.00 54 1016.0
20260508040703 53 0 0.0 1.0 0.00 0.00 0.00 55 1016.1
20260508040604 53 0 0.0 1.0 0.00 0.00 0.00 55 1016.1
20260508040503 53 0 0.0 1.0 0.00 0.00 0.00 55 1016.0
20260508040403 53 0 0.0 1.0 0.00 0.00 0.00 55 1016.1
20260508040303 53 0 0.0 1.0 0.00 0.00 0.00 56 1016.1
20260508040204 53 0 0.0 1.0 0.00 0.00 0.00 56 1016.1
20260508040103 53 0 0.0 1.0 0.00 0.00 0.00 56 1016.2
20260508040003 53 0 0.0 1.0 0.00 0.00 0.00 56 1015.7
20260508035904 53 0 0.0 1.0 0.00 0.00 0.00 56 1015.7
20260508035803 53 0 0.0 1.0 0.00 0.00 0.00 56 1015.7
20260508035703 52 0 0.0 1.0 0.00 0.00 0.00 56 1015.7
20260508035603 52 0 0.0 1.0 0.00 0.00 0.00 56 1015.7
20260508035504 52 0 0.0 1.0 0.00 0.00 0.00 56 1015.6
20260508035403 52 0 0.0 1.0 0.00 0.00 0.00 56 1015.6
20260508035306 52 0 0.0 1.0 0.00 0.00 0.00 56 1015.5
20260508035203 52 0 0.0 1.0 0.00 0.00 0.00 57 1015.7
20260508035104 52 0 0.0 1.0 0.00 0.00 0.00 57 1015.7
20260508035004 52 0 0.0 1.0 0.00 0.00 0.00 57 1015.8
20260508034903 52 0 0.0 1.0 0.00 0.00 0.00 57 1015.6
20260508034804 52 0 0.0 1.0 0.00 0.00 0.00 57 1015.6
20260508034603 52 0 0.0 1.0 0.00 0.00 0.00 58 1015.6
20260508034503 52 0 0.0 5.0 0.00 0.00 0.00 58 1015.5
20260508034404 52 0 0.0 5.0 0.00 0.00 0.00 58 1015.6
20260508034203 52 0 0.0 5.0 0.00 0.00 0.00 57 1015.6
20260508034104 52 0 0.0 5.0 0.00 0.00 0.00 57 1015.6
20260508034004 52 0 0.0 5.0 0.00 0.00 0.00 57 1015.6
20260508033903 52 0 0.0 5.0 0.00 0.00 0.00 58 1015.5
20260508033803 52 0 0.0 5.0 0.00 0.00 0.00 57 1015.6
20260508033704 53 0 0.0 5.0 0.00 0.00 0.00 57 1015.5
20260508033603 53 0 0.0 5.0 0.00 0.00 0.00 57 1015.5
20260508033503 53 0 0.0 1.0 0.00 0.00 0.00 57 1015.4
20260508033304 53 0 0.0 0.0 0.00 0.00 0.00 57 1015.4
20260508033203 53 0 0.0 0.0 0.00 0.00 0.00 57 1015.4
20260508033103 53 0 0.0 0.0 0.00 0.00 0.00 56 1015.4
20260508033003 53 0 0.0 0.0 0.00 0.00 0.00 56 1015.5
20260508032904 53 0 0.0 0.0 0.00 0.00 0.00 56 1015.4
20260508032803 53 0 0.0 0.0 0.00 0.00 0.00 56 1015.4
20260508032703 53 0 0.0 0.0 0.00 0.00 0.00 56 1015.4
20260508032604 54 0 0.0 0.0 0.00 0.00 0.00 55 1015.4
20260508032503 54 0 0.0 0.0 0.00 0.00 0.00 56 1015.4
20260508032306 54 0 0.0 0.0 0.00 0.00 0.00 55 1015.4
20260508032203 54 0 0.0 0.0 0.00 0.00 0.00 55 1015.4
20260508032103 54 0 0.0 0.0 0.00 0.00 0.00 55 1015.3
20260508032003 54 0 0.0 0.0 0.00 0.00 0.00 55 1015.3
20260508031904 54 0 0.0 0.0 0.00 0.00 0.00 55 1015.3
20260508031803 54 0 0.0 0.0 0.00 0.00 0.00 55 1015.2
20260508031703 54 0 0.0 0.0 0.00 0.00 0.00 55 1015.2
20260508031604 54 0 0.0 0.0 0.00 0.00 0.00 55 1015.3
20260508031504 53 0 0.0 0.0 0.00 0.00 0.00 55 1015.3
20260508031403 53 0 0.0 0.0 0.00 0.00 0.00 55 1015.3
20260508031303 53 0 0.0 0.0 0.00 0.00 0.00 55 1015.3
20260508031203 53 0 0.0 0.0 0.00 0.00 0.00 56 1015.3
20260508031104 53 0 0.0 0.0 0.00 0.00 0.00 56 1015.3
20260508031003 53 0 0.0 0.0 0.00 0.00 0.00 56 1015.3
20260508030903 53 0 0.0 0.0 0.00 0.00 0.00 56 1015.3
20260508030804 53 0 0.0 0.0 0.00 0.00 0.00 56 1015.3
20260508030704 52 0 0.0 0.0 0.00 0.00 0.00 56 1015.3
20260508030603 53 0 0.0 0.0 0.00 0.00 0.00 56 1015.3
20260508030504 53 0 0.0 0.0 0.00 0.00 0.00 56 1015.3
20260508030403 53 0 0.0 0.0 0.00 0.00 0.00 56 1015.3
20260508030303 53 0 0.0 0.0 0.00 0.00 0.00 56 1015.2
20260508030204 53 0 0.0 0.0 0.00 0.00 0.00 56 1015.2
20260508030103 53 0 0.0 0.0 0.00 0.00 0.00 55 1015.2
20260508030003 53 0 0.0 0.0 0.00 0.00 0.00 55 1015.2
20260508025903 53 0 0.0 0.0 0.00 0.00 0.00 55 1015.2
20260508025804 54 0 0.0 0.0 0.00 0.00 0.00 55 1015.1
20260508025703 54 0 0.0 0.0 0.00 0.00 0.00 55 1015.0
20260508025604 54 0 0.0 0.0 0.00 0.00 0.00 55 1015.1
20260508025504 54 0 0.0 0.0 0.00 0.00 0.00 55 1015.0
20260508025403 54 0 0.0 0.0 0.00 0.00 0.00 54 1015.0
20260508025306 54 0 0.0 0.0 0.00 0.00 0.00 54 1015.0
20260508025203 54 0 0.0 0.0 0.00 0.00 0.00 54 1014.9
20260508025103 54 0 0.0 0.0 0.00 0.00 0.00 54 1014.9
20260508025004 55 0 0.0 0.0 0.00 0.00 0.00 53 1014.8
20260508024904 55 0 0.0 0.0 0.00 0.00 0.00 53 1014.8
20260508024803 55 0 0.0 0.0 0.00 0.00 0.00 52 1014.7
20260508024703 55 0 0.0 0.0 0.00 0.00 0.00 52 1014.7
20260508024604 56 0 0.0 0.0 0.00 0.00 0.00 52 1014.7
20260508024503 56 0 0.0 0.0 0.00 0.00 0.00 52 1014.7
20260508024404 56 0 0.0 0.0 0.00 0.00 0.00 52 1014.7
20260508024303 56 0 0.0 0.0 0.00 0.00 0.00 52 1014.7
20260508024203 56 0 0.0 0.0 0.00 0.00 0.00 51 1014.7
20260508024104 57 0 0.0 0.0 0.00 0.00 0.00 51 1014.7
20260508024003 57 0 0.0 0.0 0.00 0.00 0.00 50 1014.6
20260508023903 57 0 0.0 0.0 0.00 0.00 0.00 50 1014.6
20260508023804 57 0 0.0 0.0 0.00 0.00 0.00 50 1014.5
20260508023704 57 0 0.0 0.0 0.00 0.00 0.00 50 1014.6
20260508023603 57 0 0.0 0.0 0.00 0.00 0.00 49 1014.7
20260508023503 57 0 0.0 0.0 0.00 0.00 0.00 50 1014.6
20260508023404 57 0 0.0 0.0 0.00 0.00 0.00 50 1014.7
20260508023303 57 0 0.0 0.0 0.00 0.00 0.00 50 1014.6
20260508023203 57 0 0.0 0.0 0.00 0.00 0.00 50 1014.7
20260508023104 57 0 0.0 0.0 0.00 0.00 0.00 50 1014.6
20260508023003 57 0 0.0 0.0 0.00 0.00 0.00 50 1014.6
20260508022903 57 0 0.0 0.0 0.00 0.00 0.00 50 1014.6
20260508022804 57 0 0.0 0.0 0.00 0.00 0.00 50 1014.6
20260508022703 57 0 0.0 0.0 0.00 0.00 0.00 50 1014.5
20260508022603 57 0 0.0 0.0 0.00 0.00 0.00 49 1014.5
20260508022504 57 0 0.0 0.0 0.00 0.00 0.00 49 1014.5
20260508022403 57 0 0.0 0.0 0.00 0.00 0.00 49 1014.5
20260508022306 57 0 0.0 0.0 0.00 0.00 0.00 49 1014.5
20260508022204 57 0 0.0 0.0 0.00 0.00 0.00 49 1014.5
20260508022103 57 0 0.0 0.0 0.00 0.00 0.00 49 1014.4
20260508022004 57 0 0.0 0.0 0.00 0.00 0.00 48 1014.4
20260508021904 57 0 0.0 0.0 0.00 0.00 0.00 48 1014.3
20260508021803 57 0 0.0 0.0 0.00 0.00 0.00 48 1014.3
20260508021704 57 0 0.0 0.0 0.00 0.00 0.00 48 1014.3
20260508021604 57 0 0.0 0.0 0.00 0.00 0.00 48 1014.3
20260508021503 57 0 0.0 0.0 0.00 0.00 0.00 48 1014.3
20260508021403 57 0 0.0 0.0 0.00 0.00 0.00 48 1014.3
20260508021304 58 0 0.0 0.0 0.00 0.00 0.00 48 1014.4
20260508021203 58 0 0.0 0.0 0.00 0.00 0.00 48 1014.4
20260508021103 58 0 0.0 0.0 0.00 0.00 0.00 48 1014.5
20260508021004 58 0 0.0 0.0 0.00 0.00 0.00 48 1014.5
20260508020903 58 0 0.0 0.0 0.00 0.00 0.00 47 1014.4
20260508020804 58 0 0.0 0.0 0.00 0.00 0.00 47 1014.5
20260508020603 58 0 0.0 0.0 0.00 0.00 0.00 47 1014.4
20260508020503 58 0 0.0 0.0 0.00 0.00 0.00 47 1014.3
20260508020404 59 0 0.0 0.0 0.00 0.00 0.00 47 1014.4
20260508020303 59 0 0.0 0.0 0.00 0.00 0.00 46 1014.3
20260508020203 59 0 0.0 0.0 0.00 0.00 0.00 46 1014.4
20260508020104 59 0 0.0 0.0 0.00 0.00 0.00 46 1014.4
20260508020004 59 0 0.0 0.0 0.00 0.00 0.00 46 1014.4
20260508015903 59 0 0.0 0.0 0.00 0.00 0.00 46 1014.4
20260508015804 60 0 0.0 0.0 0.00 0.00 0.00 46 1014.4
20260508015703 60 0 0.0 0.0 0.00 0.00 0.00 46 1014.4
20260508015603 60 0 0.0 0.0 0.00 0.00 0.00 46 1014.4
20260508015504 60 0 0.0 0.0 0.00 0.00 0.00 47 1014.4
20260508015403 60 0 0.0 0.0 0.00 0.00 0.00 46 1014.3
20260508015305 60 0 0.0 0.0 0.00 0.00 0.00 45 1014.4
20260508015204 60 0 0.0 0.0 0.00 0.00 0.00 45 1014.4
20260508015103 60 0 0.0 0.0 0.00 0.00 0.00 45 1014.3
20260508015003 60 0 0.0 0.0 0.00 0.00 0.00 45 1014.3
20260508014904 60 0 0.0 0.0 0.00 0.00 0.00 45 1014.4
20260508014803 60 0 0.0 0.0 0.00 0.00 0.00 45 1014.3
20260508014704 60 0 0.0 0.0 0.00 0.00 0.00 45 1014.3
20260508014604 60 0 0.0 0.0 0.00 0.00 0.00 45 1014.3
20260508014504 60 0 0.0 0.0 0.00 0.00 0.00 44 1014.3
20260508014403 60 0 0.0 0.0 0.00 0.00 0.00 44 1014.3
20260508014304 61 0 0.0 0.0 0.00 0.00 0.00 44 1014.3
20260508014203 61 0 0.0 0.0 0.00 0.00 0.00 44 1014.3
20260508014103 61 0 0.0 0.0 0.00 0.00 0.00 44 1014.3
20260508014004 61 0 0.0 0.0 0.00 0.00 0.00 44 1014.3
20260508013903 61 0 0.0 0.0 0.00 0.00 0.00 43 1014.3
20260508013803 61 0 0.0 0.0 0.00 0.00 0.00 43 1014.3
20260508013704 61 0 0.0 0.0 0.00 0.00 0.00 44 1014.3
20260508013403 62 0 0.0 0.0 0.00 0.00 0.00 42 1014.3
20260508013304 62 0 0.0 0.0 0.00 0.00 0.00 42 1014.2
20260508013203 62 0 0.0 0.0 0.00 0.00 0.00 42 1014.3
20260508013103 62 0 0.0 0.0 0.00 0.00 0.00 42 1014.2
20260508013004 62 0 0.0 0.0 0.00 0.00 0.00 42 1014.2
20260508012903 62 0 0.0 0.0 0.00 0.00 0.00 41 1014.2
20260508012803 62 0 0.0 0.0 0.00 0.00 0.00 41 1014.2
20260508012704 62 0 0.0 0.0 0.00 0.00 0.00 40 1014.2
20260508012603 62 0 0.0 0.0 0.00 0.00 0.00 41 1014.2
20260508012404 62 0 0.0 0.0 0.00 0.00 0.00 41 1014.1
20260508012307 63 0 0.0 0.0 0.00 0.00 0.00 41 1014.2
20260508012203 63 0 0.0 0.0 0.00 0.00 0.00 41 1014.2
20260508012103 63 0 0.0 0.0 0.00 0.00 0.00 41 1014.2
20260508012004 63 0 0.0 0.0 0.00 0.00 0.00 40 1014.2
20260508011903 63 0 0.0 0.0 0.00 0.00 0.00 41 1014.2
20260508011803 63 0 0.0 0.0 0.00 0.00 0.00 40 1014.2
20260508011704 63 0 0.0 0.0 0.00 0.00 0.00 39 1014.2
20260508011604 63 0 0.0 0.0 0.00 0.00 0.00 40 1014.2
20260508011503 63 0 0.0 0.0 0.00 0.00 0.00 40 1014.2
20260508011404 62 0 0.0 0.0 0.00 0.00 0.00 40 1014.2
20260508011303 62 0 0.0 0.0 0.00 0.00 0.00 40 1014.2
20260508011203 62 0 0.0 0.0 0.00 0.00 0.00 40 1014.2
20260508011104 62 0 0.0 0.0 0.00 0.00 0.00 40 1014.2
20260508011003 62 0 0.0 0.0 0.00 0.00 0.00 40 1014.2
20260508010903 62 0 0.0 0.0 0.00 0.00 0.00 40 1014.2
20260508010804 62 0 0.0 1.0 0.00 0.00 0.00 41 1014.3
20260508010704 62 0 0.0 1.0 0.00 0.00 0.00 41 1014.3
20260508010603 62 0 0.0 2.0 0.00 0.00 0.00 40 1014.2
20260508010503 62 0 0.0 2.0 0.00 0.00 0.00 40 1014.3
20260508010404 62 0 0.0 2.0 0.00 0.00 0.00 40 1014.3
20260508010303 62 0 0.0 2.0 0.00 0.00 0.00 41 1014.3
20260508010204 62 0 0.0 2.0 0.00 0.00 0.00 42 1014.3
20260508010104 62 0 0.0 2.0 0.00 0.00 0.00 42 1014.2
20260508010003 62 0 0.0 2.0 0.00 0.00 0.00 42 1014.2
20260508005904 62 0 0.0 2.0 0.00 0.00 0.00 41 1014.3
20260508005804 62 0 0.0 2.0 0.00 0.00 0.00 41 1014.2
20260508005703 62 0 0.0 2.0 0.00 0.00 0.00 41 1014.2
20260508005604 62 0 0.0 2.0 0.00 0.00 0.00 42 1014.2
20260508005503 62 0 0.0 0.0 0.00 0.00 0.00 41 1014.3
20260508005404 62 0 0.0 0.0 0.00 0.00 0.00 38 1014.2
20260508005305 62 0 0.0 0.0 0.00 0.00 0.00 38 1014.2
20260508005203 62 0 0.0 0.0 0.00 0.00 0.00 38 1014.3
20260508005104 62 0 0.0 0.0 0.00 0.00 0.00 38 1014.3
20260508005003 62 0 0.0 0.0 0.00 0.00 0.00 38 1014.3
20260508004903 62 0 0.0 0.0 0.00 0.00 0.00 39 1014.3
20260508004804 62 0 0.0 0.0 0.00 0.00 0.00 40 1014.4
20260508004703 62 0 0.0 0.0 0.00 0.00 0.00 40 1014.3
20260508004603 62 0 0.0 0.0 0.00 0.00 0.00 41 1014.3
20260508004503 62 0 0.0 0.0 0.00 0.00 0.00 41 1014.2
20260508004404 62 0 0.0 0.0 0.00 0.00 0.00 40 1014.3
20260508004303 62 0 0.0 0.0 0.00 0.00 0.00 41 1014.3
20260508004204 62 0 0.0 0.0 0.00 0.00 0.00 40 1014.3
20260508004104 62 0 0.0 0.0 0.00 0.00 0.00 40 1014.3
20260508004003 62 0 0.0 0.0 0.00 0.00 0.00 40 1014.4
20260508003903 62 0 0.0 0.0 0.00 0.00 0.00 40 1014.4
20260508003804 62 0 0.0 0.0 0.00 0.00 0.00 40 1014.5
20260508003703 62 0 0.0 0.0 0.00 0.00 0.00 40 1014.5
20260508003604 62 0 0.0 0.0 0.00 0.00 0.00 41 1014.4
20260508003504 62 0 0.0 0.0 0.00 0.00 0.00 41 1014.5
20260508003403 62 0 0.0 0.0 0.00 0.00 0.00 40 1014.5
20260508003304 62 0 0.0 0.0 0.00 0.00 0.00 40 1014.5
20260508003103 62 0 0.0 0.0 0.00 0.00 0.00 40 1014.5
20260508003003 62 0 0.0 0.0 0.00 0.00 0.00 42 1014.5
20260508002904 62 0 0.0 0.0 0.00 0.00 0.00 41 1014.5
20260508002803 62 0 0.0 0.0 0.00 0.00 0.00 41 1014.6
20260508002703 62 0 0.0 0.0 0.00 0.00 0.00 41 1014.6
20260508002604 62 0 0.0 0.0 0.00 0.00 0.00 42 1014.6
20260508002503 62 0 0.0 0.0 0.00 0.00 0.00 41 1014.5
20260508002403 62 0 0.0 0.0 0.00 0.00 0.00 41 1014.6
20260508002306 62 0 0.0 0.0 0.00 0.00 0.00 41 1014.6
20260508002204 62 0 0.0 0.0 0.00 0.00 0.00 41 1014.6
20260508002103 62 0 0.0 0.0 0.00 0.00 0.00 41 1014.6
20260508002004 62 0 0.0 0.0 0.00 0.00 0.00 40 1014.6
20260508001904 62 0 0.0 0.0 0.00 0.00 0.00 41 1014.6
20260508001803 62 0 0.0 0.0 0.00 0.00 0.00 40 1014.7
20260508001704 62 0 0.0 0.0 0.00 0.00 0.00 39 1014.7
20260508001604 62 0 0.0 0.0 0.00 0.00 0.00 40 1014.7
20260508001503 62 0 0.0 0.0 0.00 0.00 0.00 39 1014.8
20260508001404 62 0 0.0 0.0 0.00 0.00 0.00 38 1014.8
20260508001304 62 0 0.0 0.0 0.00 0.00 0.00 38 1014.7
20260508001203 62 0 0.0 0.0 0.00 0.00 0.00 38 1014.7
20260508001103 62 0 0.0 0.0 0.00 0.00 0.00 38 1014.9
20260508001004 62 0 0.0 0.0 0.00 0.00 0.00 39 1014.9
20260508000903 62 0 0.0 0.0 0.00 0.00 0.00 38 1014.8
20260508000804 62 0 0.0 0.0 0.00 0.00 0.00 38 1014.8
20260508000704 62 0 0.0 0.0 0.00 0.00 0.00 38 1014.8
20260508000603 62 0 0.0 0.0 0.00 0.00 0.00 38 1014.8
20260508000405 62 0 0.0 0.0 0.00 0.00 0.00 39 1014.9
20260508000305 62 0 0.0 0.0 0.00 0.00 0.00 39 1014.9
20260508000204 62 0 0.0 0.0 0.00 0.00 0.00 39 1014.9
20260508000104 62 0 0.0 0.0 0.00 0.00 0.00 40 1014.9
20260508000004 62 0 0.0 0.0 0.00 0.00 0.00 40 1014.5
20260507235903 62 0 0.0 0.0 0.00 0.00 0.00 40 1014.5
20260507235804 62 0 0.0 0.0 0.00 0.00 0.00 40 1014.5
20260507235704 62 0 0.0 0.0 0.00 0.00 0.00 39 1014.6
20260507235603 62 0 0.0 0.0 0.00 0.00 0.00 39 1014.5
20260507235504 62 0 0.0 0.0 0.00 0.00 0.00 39 1014.6
20260507235404 62 0 0.0 1.0 0.00 0.00 0.00 39 1014.5
20260507235306 62 0 0.0 1.0 0.00 0.00 0.00 40 1014.5
20260507235204 62 0 0.0 1.0 0.00 0.00 0.00 40 1014.5
20260507235104 62 0 0.0 1.0 0.00 0.00 0.00 40 1014.5
20260507235003 63 0 0.0 1.0 0.00 0.00 0.00 39 1014.6
20260507234902 63 0 0.0 1.0 0.00 0.00 0.00 39 1014.6
20260507234802 63 0 0.0 1.0 0.00 0.00 0.00 40 1014.6
20260507234702 63 0 0.0 1.0 0.00 0.00 0.00 39 1014.6
20260507234603 63 0 0.0 1.0 0.00 0.00 0.00 39 1014.6
20260507234402 63 0 0.0 1.0 0.00 0.00 0.00 38 1014.6
20260507234303 63 0 0.0 1.0 0.00 0.00 0.00 39 1014.6
20260507234202 63 0 0.0 1.0 0.00 0.00 0.00 38 1014.6
20260507234102 63 0 0.0 1.0 0.00 0.00 0.00 37 1014.6
20260507234003 63 0 0.0 1.0 0.00 0.00 0.00 37 1014.6
20260507233902 64 0 0.0 1.0 0.00 0.00 0.00 37 1014.7
20260507233802 64 0 0.0 1.0 0.00 0.00 0.00 36 1014.6
20260507233703 64 65 0.0 1.0 0.00 0.00 0.00 36 1014.6
20260507233602 64 65 0.0 1.0 0.00 0.00 0.00 36 1014.7
20260507233502 64 65 0.0 1.0 0.00 0.00 0.00 37 1014.7
20260507233402 64 54 0.0 1.0 0.00 0.00 0.00 37 1014.6
20260507233302 65 54 1.0 1.0 0.00 0.00 0.00 37 1014.6
20260507233202 65 54 1.0 1.0 0.00 0.00 0.00 37 1014.6
20260507233102 65 53 1.0 1.0 0.00 0.00 0.00 36 1014.6
20260507233002 65 0 1.0 0.0 0.00 0.00 0.00 34 1014.6
20260507232902 65 0 1.0 0.0 0.00 0.00 0.00 33 1014.5
20260507232802 65 0 1.0 0.0 0.00 0.00 0.00 32 1014.6
20260507232703 65 231 1.0 8.0 0.00 0.00 0.00 32 1014.6
20260507232602 65 228 1.0 8.0 0.00 0.00 0.00 32 1014.5
20260507232502 65 219 1.0 8.0 0.00 0.00 0.00 32 1014.5
20260507232403 65 213 1.0 8.0 0.00 0.00 0.00 32 1014.5
20260507232306 65 213 0.0 8.0 0.00 0.00 0.00 31 1014.6
20260507232202 65 216 0.0 8.0 0.00 0.00 0.00 31 1014.6
20260507232103 65 216 0.0 8.0 0.00 0.00 0.00 32 1014.6
20260507232002 65 216 0.0 8.0 0.00 0.00 0.00 32 1014.7
20260507231902 65 216 0.0 8.0 0.00 0.00 0.00 32 1014.5
20260507231702 65 194 0.0 6.0 0.00 0.00 0.00 33 1014.5
20260507231607 65 192 0.0 6.0 0.00 0.00 0.00 33 1014.5
20260507231502 66 190 0.0 6.0 0.00 0.00 0.00 33 1014.6
20260507231402 66 194 1.0 6.0 0.00 0.00 0.00 32 1014.5
20260507231302 66 192 1.0 6.0 0.00 0.00 0.00 32 1014.5
20260507231202 66 192 1.0 4.0 0.00 0.00 0.00 31 1014.6
20260507231002 66 191 1.0 4.0 0.00 0.00 0.00 31 1014.6
20260507230902 66 189 1.0 4.0 0.00 0.00 0.00 32 1014.5
20260507230802 66 187 1.0 7.0 0.00 0.00 0.00 31 1014.6
20260507230702 66 187 0.0 7.0 0.00 0.00 0.00 31 1014.5
20260507230602 66 188 0.0 7.0 0.00 0.00 0.00 32 1014.5
20260507230502 66 196 0.0 7.0 0.00 0.00 0.00 31 1014.6
20260507230403 66 197 0.0 7.0 0.00 0.00 0.00 31 1014.6
20260507230302 66 196 0.0 7.0 0.00 0.00 0.00 32 1014.6
20260507230203 66 185 0.0 7.0 0.00 0.00 0.00 32 1014.7
20260507230002 65 184 0.0 7.0 0.00 0.00 0.00 33 1014.6
20260507225902 65 183 0.0 7.0 0.00 0.00 0.00 33 1014.6
20260507225802 65 0 1.0 0.0 0.00 0.00 0.00 32 1014.7
20260507225702 65 0 1.0 0.0 0.00 0.00 0.00 32 1014.7
20260507225602 65 0 1.0 0.0 0.00 0.00 0.00 32 1014.7
20260507225503 65 0 1.0 0.0 0.00 0.00 0.00 32 1014.7
20260507225402 64 208 1.0 1.0 0.00 0.00 0.00 32 1014.7
20260507225305 64 213 1.0 8.0 0.00 0.00 0.00 33 1014.7
20260507225102 64 216 1.0 11.0 0.00 0.00 0.00 32 1014.8
20260507225002 64 216 1.0 11.0 0.00 0.00 0.00 33 1014.8
20260507224903 64 216 0.0 11.0 0.00 0.00 0.00 32 1014.8
20260507224803 64 216 0.0 11.0 0.00 0.00 0.00 32 1014.8
20260507224702 64 216 0.0 11.0 0.00 0.00 0.00 32 1014.9
20260507224602 64 216 0.0 11.0 0.00 0.00 0.00 32 1014.9
20260507224502 64 216 0.0 11.0 0.00 0.00 0.00 32 1014.9
20260507224403 64 0 0.0 11.0 0.00 0.00 0.00 33 1014.8
20260507224302 64 0 0.0 11.0 0.00 0.00 0.00 33 1014.8
20260507224202 64 0 0.0 2.0 0.00 0.00 0.00 34 1014.8
20260507224102 64 0 0.0 2.0 0.00 0.00 0.00 35 1014.9
20260507224003 64 0 0.0 2.0 0.00 0.00 0.00 35 1014.9
20260507223902 64 0 0.0 2.0 0.00 0.00 0.00 35 1014.8
20260507223802 63 0 0.0 2.0 0.00 0.00 0.00 35 1014.9
20260507223702 63 0 0.0 2.0 0.00 0.00 0.00 35 1015.0
20260507223602 63 0 0.0 2.0 0.00 0.00 0.00 35 1015.0
20260507223502 63 0 0.0 2.0 0.00 0.00 0.00 36 1015.0
20260507223402 63 0 0.0 2.0 0.00 0.00 0.00 36 1014.9
20260507223303 63 0 0.0 2.0 0.00 0.00 0.00 36 1015.0
20260507223202 62 0 0.0 2.0 0.00 0.00 0.00 37 1015.0
20260507223103 62 0 0.0 2.0 0.00 0.00 0.00 36 1015.1
20260507223002 62 0 0.0 2.0 0.00 0.00 0.00 37 1015.1
20260507222902 62 0 0.0 2.0 0.00 0.00 0.00 37 1015.1
20260507222803 62 0 0.0 1.0 0.00 0.00 0.00 37 1015.1
20260507222702 62 0 0.0 1.0 0.00 0.00 0.00 37 1015.1
20260507222602 61 175 0.0 1.0 0.00 0.00 0.00 38 1015.1
20260507222502 61 0 0.0 0.0 0.00 0.00 0.00 38 1015.2
20260507222402 61 0 0.0 0.0 0.00 0.00 0.00 38 1015.2
20260507222306 61 67 0.0 1.0 0.00 0.00 0.00 39 1015.3
20260507222202 61 67 1.0 1.0 0.00 0.00 0.00 39 1015.3
20260507222102 60 67 1.0 1.0 0.00 0.00 0.00 39 1015.3
20260507222002 60 67 1.0 1.0 0.00 0.00 0.00 40 1015.4
20260507221902 60 67 1.0 1.0 0.00 0.00 0.00 40 1015.4
20260507221802 60 67 1.0 1.0 0.00 0.00 0.00 40 1015.4
20260507221702 60 67 2.0 1.0 0.00 0.00 0.00 39 1015.4
20260507221603 60 80 2.0 6.0 0.00 0.00 0.00 39 1015.4
20260507221502 60 76 2.0 7.0 0.00 0.00 0.00 38 1015.5
20260507221402 60 76 2.0 7.0 0.00 0.00 0.00 38 1015.5
20260507221303 60 76 2.0 7.0 0.00 0.00 0.00 38 1015.6
20260507221202 60 77 2.0 8.0 0.00 0.00 0.00 38 1015.6
20260507221102 60 77 1.0 8.0 0.00 0.00 0.00 38 1015.6
20260507221002 60 77 1.0 8.0 0.00 0.00 0.00 38 1015.6
20260507220802 60 77 1.0 8.0 0.00 0.00 0.00 38 1015.6
20260507220702 60 77 1.0 8.0 0.00 0.00 0.00 38 1015.6
20260507220603 60 77 1.0 8.0 0.00 0.00 0.00 38 1015.5
20260507220502 60 79 1.0 8.0 0.00 0.00 0.00 39 1015.6
20260507220402 60 81 0.0 8.0 0.00 0.00 0.00 38 1015.6
20260507220303 60 86 0.0 8.0 0.00 0.00 0.00 39 1015.6
20260507215802 60 0 0.0 2.0 0.00 0.00 0.00 39 1015.3
20260507215702 60 0 0.0 2.0 0.00 0.00 0.00 39 1015.4
20260507215603 60 0 0.0 2.0 0.00 0.00 0.00 38 1015.4
20260507215502 60 0 0.0 2.0 0.00 0.00 0.00 38 1015.5
20260507215306 60 0 0.0 2.0 0.00 0.00 0.00 38 1015.6
20260507215102 60 0 0.0 2.0 0.00 0.00 0.00 38 1015.5
20260507215002 60 0 0.0 2.0 0.00 0.00 0.00 38 1015.6
20260507214902 60 0 0.0 2.0 0.00 0.00 0.00 38 1015.6
20260507214802 60 0 0.0 2.0 0.00 0.00 0.00 38 1015.6
20260507214702 61 0 0.0 2.0 0.00 0.00 0.00 38 1015.6
20260507214602 61 0 0.0 2.0 0.00 0.00 0.00 38 1015.6
20260507214502 61 0 0.0 2.0 0.00 0.00 0.00 38 1015.7
20260507214402 61 0 0.0 2.0 0.00 0.00 0.00 38 1015.7
20260507214303 60 0 0.0 2.0 0.00 0.00 0.00 39 1015.7
20260507214202 60 0 0.0 0.0 0.00 0.00 0.00 39 1015.7
20260507214103 60 0 0.0 0.0 0.00 0.00 0.00 39 1015.7
20260507214002 60 0 0.0 0.0 0.00 0.00 0.00 39 1015.7
20260507213903 60 0 0.0 1.0 0.00 0.00 0.00 39 1015.7
20260507213802 60 0 0.0 1.0 0.00 0.00 0.00 39 1015.7
20260507213702 60 0 0.0 1.0 0.00 0.00 0.00 39 1015.7
20260507213602 60 0 0.0 1.0 0.00 0.00 0.00 39 1015.8
20260507213502 60 0 0.0 1.0 0.00 0.00 0.00 38 1015.9
20260507213402 60 0 0.0 1.0 0.00 0.00 0.00 39 1015.9
20260507213302 60 0 0.0 1.0 0.00 0.00 0.00 38 1016.0
20260507213202 60 0 0.0 1.0 0.00 0.00 0.00 38 1016.0
20260507213102 60 0 0.0 1.0 0.00 0.00 0.00 38 1016.1
20260507213003 59 0 0.0 1.0 0.00 0.00 0.00 38 1016.1
20260507212902 59 0 0.0 0.0 0.00 0.00 0.00 38 1016.2
20260507212803 59 0 0.0 0.0 0.00 0.00 0.00 39 1016.2
20260507212602 59 0 0.0 0.0 0.00 0.00 0.00 39 1016.3
20260507212503 59 0 0.0 0.0 0.00 0.00 0.00 38 1016.4
20260507212306 59 0 0.0 0.0 0.00 0.00 0.00 38 1016.4
20260507212103 59 0 0.0 1.0 0.00 0.00 0.00 38 1016.5
20260507212002 59 0 0.0 1.0 0.00 0.00 0.00 38 1016.5
20260507211702 59 0 0.0 1.0 0.00 0.00 0.00 38 1016.6
20260507211602 59 0 0.0 1.0 0.00 0.00 0.00 38 1016.7
20260507211502 59 0 0.0 1.0 0.00 0.00 0.00 38 1016.8
20260507211402 59 0 0.0 1.0 0.00 0.00 0.00 39 1016.7
20260507211302 59 0 0.0 1.0 0.00 0.00 0.00 39 1016.8
20260507211103 59 0 0.0 1.0 0.00 0.00 0.00 40 1016.8
20260507211002 59 0 0.0 1.0 0.00 0.00 0.00 40 1016.7
20260507210902 59 0 0.0 1.0 0.00 0.00 0.00 40 1016.7
20260507210802 59 0 0.0 1.0 0.00 0.00 0.00 41 1016.7
20260507210702 59 0 0.0 0.0 0.00 0.00 0.00 39 1016.7
20260507210603 58 0 0.0 0.0 0.00 0.00 0.00 40 1016.7
20260507210502 58 0 0.0 0.0 0.00 0.00 0.00 39 1016.8
20260507210402 58 0 0.0 0.0 0.00 0.00 0.00 40 1016.8
20260507210303 58 0 0.0 0.0 0.00 0.00 0.00 39 1016.9
20260507210202 58 0 0.0 0.0 0.00 0.00 0.00 40 1016.8
20260507210003 58 0 0.0 0.0 0.00 0.00 0.00 39 1016.9
20260507205902 58 0 0.0 0.0 0.00 0.00 0.00 40 1016.9
20260507205802 58 0 0.0 0.0 0.00 0.00 0.00 40 1016.9
20260507205703 58 0 0.0 0.0 0.00 0.00 0.00 40 1016.8
20260507205602 58 0 0.0 0.0 0.00 0.00 0.00 41 1016.7
20260507205503 58 0 0.0 0.0 0.00 0.00 0.00 41 1016.7
20260507205402 58 0 0.0 0.0 0.00 0.00 0.00 40 1016.7
20260507205306 58 0 0.0 0.0 0.00 0.00 0.00 40 1016.7
20260507205102 58 0 0.0 0.0 0.00 0.00 0.00 40 1016.8
20260507205002 57 0 0.0 1.0 0.00 0.00 0.00 41 1016.8
20260507204903 57 0 0.0 1.0 0.00 0.00 0.00 41 1016.8
20260507204802 57 0 0.0 1.0 0.00 0.00 0.00 41 1016.8
20260507204702 57 0 0.0 1.0 0.00 0.00 0.00 42 1016.8
20260507204602 57 0 0.0 1.0 0.00 0.00 0.00 42 1016.8
20260507204402 57 0 0.0 1.0 0.00 0.00 0.00 41 1016.9
20260507204303 57 0 0.0 1.0 0.00 0.00 0.00 40 1017.0
20260507204202 57 0 0.0 1.0 0.00 0.00 0.00 41 1017.0
20260507204102 57 0 0.0 1.0 0.00 0.00 0.00 41 1017.0
20260507204003 57 0 0.0 1.0 0.00 0.00 0.00 41 1017.1
20260507203902 57 0 0.0 1.0 0.00 0.00 0.00 41 1017.1
20260507203802 57 0 0.0 0.0 0.00 0.00 0.00 42 1017.1
20260507203703 57 0 0.0 0.0 0.00 0.00 0.00 41 1017.1
20260507203602 57 0 0.0 0.0 0.00 0.00 0.00 41 1017.3
20260507203502 57 0 0.0 0.0 0.00 0.00 0.00 42 1017.3
20260507203402 57 0 0.0 0.0 0.00 0.00 0.00 41 1017.4
20260507203302 57 0 0.0 0.0 0.00 0.00 0.00 41 1017.5
20260507203203 57 0 0.0 0.0 0.00 0.00 0.00 41 1017.5
20260507203102 57 0 0.0 0.0 0.00 0.00 0.00 41 1017.5
20260507203002 57 0 0.0 0.0 0.00 0.00 0.00 41 1017.5
20260507202903 56 0 0.0 0.0 0.00 0.00 0.00 42 1017.5
20260507202802 56 0 0.0 0.0 0.00 0.00 0.00 42 1017.5
20260507202702 56 0 0.0 0.0 0.00 0.00 0.00 42 1017.5
20260507202603 56 0 0.0 0.0 0.00 0.00 0.00 42 1017.5
20260507202502 56 0 0.0 0.0 0.00 0.00 0.00 42 1017.5
20260507202306 56 0 0.0 0.0 0.00 0.00 0.00 43 1017.6
20260507202202 56 0 1.0 0.0 0.00 0.00 0.00 43 1017.6
20260507202103 56 0 1.0 0.0 0.00 0.00 0.00 43 1017.6
20260507202002 56 0 1.0 0.0 0.00 0.00 0.00 43 1017.7
20260507201902 56 68 1.0 1.0 0.00 0.00 0.00 43 1017.7
20260507201802 56 68 2.0 1.0 0.00 0.00 0.00 44 1017.7
20260507201702 56 84 2.0 6.0 0.00 0.00 0.00 44 1017.7
20260507201602 56 84 3.0 6.0 0.00 0.00 0.00 43 1017.7
20260507201502 56 83 3.0 6.0 0.00 0.00 0.00 43 1017.7
20260507201402 55 67 4.0 6.0 0.00 0.00 0.00 44 1017.6
20260507201303 55 55 4.0 7.0 0.00 0.00 0.00 43 1017.7
20260507201202 55 54 4.0 7.0 0.00 0.00 0.00 44 1017.7
20260507201102 55 50 5.0 9.0 0.00 0.00 0.00 44 1017.7
20260507201002 55 48 5.0 9.0 0.00 0.00 0.00 45 1017.7
20260507200903 55 45 5.0 10.0 0.00 0.00 0.00 44 1017.8
20260507200802 55 43 5.0 12.0 0.00 0.00 0.00 44 1017.7
20260507200702 55 37 5.0 12.0 0.00 0.00 0.00 44 1017.7
20260507200602 55 36 5.0 12.0 0.00 0.00 0.00 45 1017.6
20260507200502 55 36 5.0 12.0 0.00 0.00 0.00 45 1017.7
20260507200402 55 36 5.0 12.0 0.00 0.00 0.00 45 1017.8
20260507200303 55 35 5.0 12.0 0.00 0.00 0.00 44 1017.8
20260507200202 55 32 4.0 12.0 0.00 0.00 0.00 44 1017.9
20260507195902 54 26 4.0 12.0 0.00 0.00 0.00 45 1017.7
20260507195803 54 26 3.0 10.0 0.00 0.00 0.00 47 1017.6
20260507195702 54 26 3.0 9.0 0.00 0.00 0.00 46 1017.8
20260507195602 54 24 3.0 9.0 0.00 0.00 0.00 45 1017.8
20260507195503 54 21 3.0 9.0 0.00 0.00 0.00 46 1017.8
20260507195402 54 21 3.0 9.0 0.00 0.00 0.00 46 1017.8
20260507195305 54 16 3.0 9.0 0.00 0.00 0.00 46 1017.8
20260507195202 54 10 3.0 9.0 0.00 0.00 0.00 47 1017.8
20260507195102 53 357 3.0 9.0 0.00 0.00 0.00 47 1017.9
20260507195003 53 1 3.0 9.0 0.00 0.00 0.00 47 1017.8
20260507194902 53 3 4.0 9.0 0.00 0.00 0.00 47 1017.8
20260507194803 53 1 4.0 8.0 0.00 0.00 0.00 47 1017.8
20260507194702 53 358 5.0 7.0 0.00 0.00 0.00 47 1017.8
20260507194602 53 2 5.0 7.0 0.00 0.00 0.00 48 1017.7
20260507194403 54 19 6.0 8.0 0.00 0.00 0.00 44 1017.6
20260507194302 54 33 6.0 9.0 0.00 0.00 0.00 44 1017.7
20260507194102 54 45 6.0 9.0 0.00 0.00 0.00 47 1017.8
20260507193902 54 49 7.0 12.0 0.00 0.00 0.00 46 1017.9
20260507193804 53 51 7.0 12.0 0.00 0.00 0.00 45 1017.7
20260507193702 53 50 7.0 12.0 0.00 0.00 0.00 45 1017.7
20260507193602 53 49 7.0 12.0 0.00 0.00 0.00 46 1017.9
20260507193503 53 47 6.0 12.0 0.00 0.00 0.00 45 1017.8
20260507193402 54 42 6.0 12.0 0.00 0.00 0.00 45 1017.8
20260507193302 54 41 6.0 12.0 0.00 0.00 0.00 46 1017.9
20260507193203 54 40 6.0 12.0 0.00 0.00 0.00 45 1018.0
20260507193102 54 41 5.0 12.0 0.00 0.00 0.00 46 1018.0
20260507193002 54 44 5.0 12.0 0.00 0.00 0.00 44 1017.9
20260507192902 54 45 5.0 12.0 0.00 0.00 0.00 44 1017.9
20260507192802 54 44 4.0 12.0 0.00 0.00 0.00 44 1018.1
20260507192703 54 41 4.0 12.0 0.00 0.00 0.00 46 1018.1
20260507192502 54 41 5.0 9.0 0.00 0.00 0.00 46 1018.2
20260507192402 54 45 5.0 9.0 0.00 0.00 0.00 46 1018.2
20260507192305 54 33 5.0 9.0 0.00 0.00 0.00 45 1018.2
20260507192203 54 23 5.0 9.0 0.00 0.00 0.00 46 1018.2
20260507192102 54 9 6.0 9.0 0.00 0.00 0.00 47 1018.1
20260507192002 54 2 6.0 9.0 0.00 0.00 0.00 47 1018.2
20260507191902 54 352 6.0 10.0 0.00 0.00 0.00 47 1018.2
20260507191802 54 350 7.0 11.0 0.00 0.00 0.00 46 1018.2
20260507191703 54 352 7.0 12.0 0.00 0.00 0.00 48 1018.2
20260507191602 53 2 7.0 12.0 0.00 0.00 0.00 47 1018.2
20260507191502 53 9 7.0 12.0 0.00 0.00 0.00 46 1018.2
20260507191403 53 12 7.0 12.0 0.00 0.00 0.00 46 1018.2
20260507191302 53 15 7.0 12.0 0.00 0.00 0.00 46 1018.2
20260507191202 53 19 6.0 12.0 0.00 0.00 0.00 46 1018.2
20260507191103 54 22 6.0 12.0 0.00 0.00 0.00 46 1018.2
20260507191002 54 23 6.0 12.0 0.00 0.00 0.00 45 1018.2
20260507190902 54 26 6.0 12.0 0.00 0.00 0.00 45 1018.2
20260507190802 54 28 5.0 12.0 0.00 0.00 0.00 45 1018.2
20260507190702 54 33 5.0 12.0 0.00 0.00 0.00 45 1018.3
20260507190603 54 35 5.0 11.0 0.00 0.00 0.00 44 1018.3
20260507190502 54 35 5.0 11.0 0.00 0.00 0.00 46 1018.3
20260507190402 54 33 5.0 11.0 0.00 0.00 0.00 46 1018.3
20260507190302 54 31 5.0 11.0 0.00 0.00 0.00 46 1018.4
20260507190203 54 29 5.0 11.0 0.00 0.00 0.00 46 1018.4
20260507190004 53 30 5.0 11.0 0.00 0.00 0.00 46 1018.5
20260507185902 53 30 5.0 11.0 0.00 0.00 0.00 45 1018.5
20260507185802 53 25 5.0 11.0 0.00 0.00 0.00 44 1018.5
20260507185703 54 25 5.0 11.0 0.00 0.00 0.00 46 1018.7
20260507185602 54 25 5.0 9.0 0.00 0.00 0.00 45 1018.7
20260507185502 54 25 5.0 9.0 0.00 0.00 0.00 45 1018.7
20260507185402 54 29 5.0 9.0 0.00 0.00 0.00 44 1018.7
20260507185305 54 38 5.0 9.0 0.00 0.00 0.00 43 1018.6
20260507185202 54 45 5.0 9.0 0.00 0.00 0.00 45 1018.6
20260507185102 54 48 5.0 9.0 0.00 0.00 0.00 44 1018.6
20260507185003 54 50 6.0 9.0 0.00 0.00 0.00 44 1018.6
20260507184902 54 50 6.0 9.0 0.00 0.00 0.00 44 1018.6
20260507184802 53 57 6.0 9.0 0.00 0.00 0.00 44 1018.6
20260507184703 53 60 6.0 9.0 0.00 0.00 0.00 46 1018.8
20260507184603 53 65 6.0 10.0 0.00 0.00 0.00 45 1018.6
20260507184502 53 67 6.0 10.0 0.00 0.00 0.00 44 1018.5
20260507184402 53 66 6.0 10.0 0.00 0.00 0.00 44 1018.5
20260507184303 53 68 6.0 10.0 0.00 0.00 0.00 44 1018.6
20260507184202 53 71 6.0 10.0 0.00 0.00 0.00 45 1018.8
20260507184102 53 75 5.0 15.0 0.00 0.00 0.00 44 1018.7
20260507184003 53 74 5.0 15.0 0.00 0.00 0.00 43 1018.6
20260507183902 53 74 5.0 15.0 0.00 0.00 0.00 43 1018.7
20260507183802 54 74 5.0 15.0 0.00 0.00 0.00 44 1018.8
20260507183702 53 71 5.0 15.0 0.00 0.00 0.00 43 1018.7
20260507183602 54 65 6.0 15.0 0.00 0.00 0.00 46 1018.7
20260507183502 53 58 6.0 15.0 0.00 0.00 0.00 45 1018.8
20260507183402 53 56 6.0 15.0 0.00 0.00 0.00 45 1018.7
20260507183302 53 56 6.0 15.0 0.00 0.00 0.00 45 1018.8
20260507183203 53 57 6.0 15.0 0.00 0.00 0.00 46 1018.8
20260507183102 53 55 6.0 11.0 0.00 0.00 0.00 44 1018.6
20260507183002 53 63 6.0 11.0 0.00 0.00 0.00 45 1018.8
20260507182902 53 68 6.0 11.0 0.00 0.00 0.00 45 1018.9
20260507182803 53 72 6.0 13.0 0.00 0.00 0.00 45 1018.9
20260507182702 52 76 6.0 13.0 0.00 0.00 0.00 46 1019.0
20260507182602 52 77 6.0 13.0 0.00 0.00 0.00 45 1018.9
20260507182503 52 83 6.0 13.0 0.00 0.00 0.00 45 1018.9
20260507182402 52 86 6.0 13.0 0.00 0.00 0.00 46 1019.1
20260507182306 52 86 6.0 13.0 0.00 0.00 0.00 46 1019.2
20260507182202 52 81 6.0 13.0 0.00 0.00 0.00 45 1019.0
20260507182102 52 77 6.0 13.0 0.00 0.00 0.00 45 1019.1
20260507182003 52 72 6.0 13.0 0.00 0.00 0.00 47 1019.3
20260507181902 52 69 6.0 13.0 0.00 0.00 0.00 47 1019.3
20260507181802 52 67 6.0 11.0 0.00 0.00 0.00 48 1019.2
20260507181702 52 66 6.0 10.0 0.00 0.00 0.00 46 1019.0
20260507181602 52 67 6.0 10.0 0.00 0.00 0.00 45 1019.1
20260507181503 52 64 6.0 10.0 0.00 0.00 0.00 46 1019.1
20260507181402 51 64 6.0 10.0 0.00 0.00 0.00 46 1019.3
20260507181302 51 69 6.0 10.0 0.00 0.00 0.00 46 1019.3
20260507181203 51 73 6.0 11.0 0.00 0.00 0.00 46 1019.3
20260507181102 51 77 5.0 11.0 0.00 0.00 0.00 47 1019.3
20260507181002 51 83 5.0 11.0 0.00 0.00 0.00 47 1019.3
20260507180803 51 81 5.0 11.0 0.00 0.00 0.00 47 1019.3
20260507180702 51 83 5.0 11.0 0.00 0.00 0.00 48 1019.4
20260507180603 51 84 4.0 11.0 0.00 0.00 0.00 48 1019.4
20260507180502 50 87 4.0 11.0 0.00 0.00 0.00 47 1019.4
20260507180402 50 84 4.0 11.0 0.00 0.00 0.00 47 1019.4
20260507180303 51 83 4.0 11.0 0.00 0.00 0.00 47 1019.4
20260507180202 51 86 4.0 10.0 0.00 0.00 0.00 48 1019.5
20260507180003 51 89 4.0 10.0 0.00 0.00 0.00 48 1019.4
20260507175802 50 104 4.0 8.0 0.00 0.00 0.00 50 1019.6
20260507175703 50 108 4.0 8.0 0.00 0.00 0.00 48 1019.5
20260507175602 50 114 4.0 8.0 0.00 0.00 0.00 48 1019.5
20260507175502 50 116 4.0 8.0 0.00 0.00 0.00 49 1019.5
20260507175403 49 122 4.0 8.0 0.00 0.00 0.00 48 1019.5
20260507175306 49 120 4.0 8.0 0.00 0.00 0.00 49 1019.5
20260507175203 49 120 4.0 8.0 0.00 0.00 0.00 52 1019.6
20260507175102 49 121 4.0 8.0 0.00 0.00 0.00 51 1019.6
20260507175002 49 117 4.0 8.0 0.00 0.00 0.00 51 1019.7
20260507174903 49 111 3.0 8.0 0.00 0.00 0.00 51 1019.7
20260507174802 48 109 3.0 8.0 0.00 0.00 0.00 52 1019.8
20260507174702 48 107 3.0 8.0 0.00 0.00 0.00 51 1019.8
20260507174603 48 103 3.0 8.0 0.00 0.00 0.00 51 1019.8
20260507174502 48 101 4.0 8.0 0.00 0.00 0.00 51 1019.8
20260507174403 48 100 4.0 8.0 0.00 0.00 0.00 52 1019.9
20260507174302 48 100 4.0 8.0 0.00 0.00 0.00 52 1019.9
20260507174202 48 100 5.0 7.0 0.00 0.00 0.00 52 1020.0
20260507174103 48 95 5.0 7.0 0.00 0.00 0.00 51 1020.1
20260507173902 48 85 6.0 7.0 0.00 0.00 0.00 53 1020.2
20260507173803 48 81 7.0 9.0 0.00 0.00 0.00 53 1020.3
20260507173702 48 79 7.0 9.0 0.00 0.00 0.00 54 1020.2
20260507173602 48 78 7.0 10.0 0.00 0.00 0.00 53 1020.2
20260507173503 48 77 8.0 10.0 0.00 0.00 0.00 54 1020.3
20260507173402 47 72 8.0 11.0 0.00 0.00 0.00 55 1020.0
20260507173302 47 67 8.0 11.0 0.00 0.00 0.00 54 1019.9
20260507173203 47 63 8.0 11.0 0.00 0.00 0.00 54 1020.0
20260507173102 47 58 8.0 11.0 0.00 0.00 0.00 53 1020.1
20260507173002 47 54 9.0 11.0 0.00 0.00 0.00 55 1020.2
20260507172903 47 52 9.0 11.0 0.00 0.00 0.00 54 1020.1
20260507172802 47 51 9.0 11.0 0.00 0.00 0.00 54 1020.0
20260507172702 47 49 10.0 11.0 0.00 0.00 0.00 54 1020.1
20260507172602 47 47 10.0 11.0 0.00 0.00 0.00 55 1020.3
20260507172502 47 44 10.0 12.0 0.00 0.00 0.00 54 1020.2
20260507172402 47 43 10.0 14.0 0.00 0.00 0.00 54 1020.3
20260507172307 48 40 10.0 14.0 0.00 0.00 0.00 54 1020.8
20260507172202 48 38 10.0 14.0 0.00 0.00 0.00 54 1020.9
20260507172102 48 38 10.0 16.0 0.00 0.00 0.00 54 1020.9
20260507172002 48 38 10.0 16.0 0.00 0.00 0.00 55 1020.9
20260507171902 48 38 10.0 16.0 0.00 0.00 0.00 54 1021.0
20260507171803 48 35 10.0 16.0 0.00 0.00 0.00 54 1020.9
20260507171702 48 34 9.0 16.0 0.00 0.00 0.00 54 1020.9
20260507171603 48 31 9.0 16.0 0.00 0.00 0.00 54 1020.9
20260507171503 48 32 9.0 16.0 0.00 0.00 0.00 53 1020.7
20260507171302 48 35 8.0 16.0 0.00 0.00 0.00 50 1020.8
20260507171202 48 38 7.0 16.0 0.00 0.00 0.00 49 1020.8
20260507171103 48 40 6.0 14.0 0.00 0.00 0.00 51 1020.7
20260507171002 49 41 5.0 13.0 0.00 0.00 0.00 50 1020.6
20260507170902 48 43 5.0 13.0 0.00 0.00 0.00 50 1020.6
20260507170803 48 46 4.0 13.0 0.00 0.00 0.00 49 1020.5
20260507170702 48 48 3.0 13.0 0.00 0.00 0.00 48 1020.5
20260507170602 49 52 2.0 13.0 0.00 0.00 0.00 47 1020.5
20260507170503 49 52 2.0 13.0 0.00 0.00 0.00 47 1020.3
20260507170402 49 52 1.0 13.0 0.00 0.00 0.00 47 1020.3
20260507170303 49 51 1.0 11.0 0.00 0.00 0.00 49 1020.3
20260507170003 48 58 0.0 8.0 0.00 0.00 0.00 48 1019.9
20260507165902 48 68 0.0 7.0 0.00 0.00 0.00 50 1019.8
20260507165802 48 72 0.0 7.0 0.00 0.00 0.00 50 1019.7
20260507165703 48 72 0.0 7.0 0.00 0.00 0.00 50 1019.7
20260507165602 48 72 0.0 7.0 0.00 0.00 0.00 50 1019.8
20260507165502 48 71 0.0 7.0 0.00 0.00 0.00 50 1019.8
20260507165402 48 71 0.0 7.0 0.00 0.00 0.00 49 1019.9
20260507165306 48 70 0.0 7.0 0.00 0.00 0.00 49 1019.9
20260507165102 48 59 0.0 7.0 0.00 0.00 0.00 51 1019.9
20260507165002 48 53 0.0 7.0 0.00 0.00 0.00 50 1019.9
20260507164902 48 52 1.0 7.0 0.00 0.00 0.00 50 1019.9
20260507164803 48 52 1.0 7.0 0.00 0.00 0.00 50 1019.9
20260507164702 48 52 1.0 7.0 0.00 0.00 0.00 50 1019.9
20260507164602 48 52 1.0 7.0 0.00 0.00 0.00 51 1019.9
20260507164402 48 55 1.0 7.0 0.00 0.00 0.00 51 1020.0
20260507164302 48 58 1.0 7.0 0.00 0.00 0.00 51 1019.9
20260507164203 48 61 1.0 7.0 0.00 0.00 0.00 50 1019.9
20260507164102 48 61 1.0 7.0 0.00 0.00 0.00 50 1019.9
20260507164002 48 61 1.0 7.0 0.00 0.00 0.00 51 1019.9
20260507163903 48 61 0.0 7.0 0.00 0.00 0.00 51 1020.0
20260507163802 48 61 0.0 7.0 0.00 0.00 0.00 51 1020.0
20260507163702 48 61 0.0 7.0 0.00 0.00 0.00 52 1020.0
20260507163603 48 61 0.0 7.0 0.00 0.00 0.00 53 1020.1
20260507163502 48 61 0.0 7.0 0.00 0.00 0.00 53 1020.1
20260507163403 48 62 0.0 7.0 0.00 0.00 0.00 53 1020.1
20260507163302 48 119 0.0 1.0 0.00 0.00 0.00 52 1020.2
20260507163203 48 106 1.0 1.0 0.00 0.00 0.00 52 1020.2
20260507163102 48 106 1.0 1.0 0.00 0.00 0.00 51 1020.1
20260507163002 48 106 1.0 1.0 0.00 0.00 0.00 52 1020.1
20260507162903 48 94 1.0 1.0 0.00 0.00 0.00 51 1020.1